GFSNW_850_thetae_066.txt.gz
Theta_e
300 302 302 304 304 303 304 304 304 303 302 301 302 304 304 305 305 306 306 308 308 308 309 310 312 314 315 316 318 316 315 316 317 317 318 317 317 319 318 319 323 322 320 322
300 301 302 302 303 303 303 303 302 302 302 302 302 302 303 304 305 305 306 307 307 307 308 308 311 313 315 318 319 319 316 316 318 317 317 317 317 317 318 318 318 319 320 322
300 301 301 301 302 303 303 300 302 303 303 302 301 302 303 304 305 304 305 306 307 306 306 307 308 310 314 317 317 318 318 319 317 318 318 317 319 318 318 319 318 318 320 320
300 300 301 301 302 302 303 300 302 304 303 302 303 302 304 305 304 305 306 305 305 307 308 307 308 312 317 318 318 319 319 319 318 316 317 317 319 319 318 318 319 321 321 322
300 301 301 301 302 303 303 299 302 303 302 304 303 303 303 303 304 305 306 306 305 306 307 307 307 309 315 320 319 318 318 320 317 318 317 318 318 318 319 318 318 319 321 321
300 301 302 302 301 301 303 303 302 304 304 303 305 303 303 304 303 304 304 306 306 306 306 306 307 313 317 318 319 319 318 319 320 321 317 318 318 318 318 318 318 320 322 320
300 300 300 300 299 299 300 304 302 303 305 303 304 305 304 304 305 304 305 305 305 306 307 309 313 314 314 316 317 318 317 316 318 317 315 320 318 317 317 317 317 317 318 319
298 297 297 297 298 298 300 301 303 303 304 303 303 304 305 304 304 304 305 306 307 306 306 307 311 309 310 312 315 318 316 315 314 319 317 318 318 317 317 318 317 316 317 315
297 298 298 297 297 298 298 300 300 302 304 305 303 303 304 304 304 304 304 305 305 306 305 305 306 308 313 315 317 316 314 314 313 315 319 319 317 316 318 319 318 316 317 317
298 298 299 298 298 299 299 300 300 301 299 303 304 303 304 304 304 303 304 305 305 306 303 304 306 307 311 313 314 313 312 311 315 316 319 317 316 318 318 320 318 318 318 319
301 300 300 300 300 299 299 299 300 299 300 302 305 304 305 305 305 304 304 305 306 305 305 305 305 304 310 312 313 313 313 314 314 315 317 316 318 319 319 316 318 320 319 319
301 301 301 300 301 301 300 300 300 300 300 301 304 306 305 305 305 305 306 306 306 306 306 304 304 304 302 308 311 311 314 314 315 315 315 315 317 319 318 319 319 318 319 318
301 301 300 301 300 300 300 300 300 300 300 300 301 305 306 306 306 307 307 307 307 308 309 307 307 308 306 309 308 310 310 313 314 315 314 314 316 318 315 316 317 318 318 316
300 300 300 300 301 301 300 299 299 300 300 301 304 305 305 306 306 306 307 307 308 308 309 307 304 305 308 305 309 309 309 312 313 314 315 316 317 317 317 317 316 316 316 317
300 300 299 300 301 301 300 299 300 300 301 303 303 306 306 305 306 305 305 307 307 307 308 305 306 307 309 308 309 309 310 312 313 313 314 315 316 313 314 316 316 316 316 317
299 300 300 300 302 300 299 300 299 300 301 301 304 306 307 307 307 306 306 307 306 307 307 304 308 310 310 309 310 309 308 310 312 311 314 315 313 313 314 314 316 317 317 316
300 301 300 301 300 300 301 301 301 300 300 300 304 305 306 305 306 306 306 306 306 307 308 306 307 309 310 305 308 305 305 305 309 311 314 314 315 315 315 317 316 315 314 315
301 301 300 300 300 301 302 301 301 301 302 304 300 304 306 305 305 304 305 306 307 308 307 308 309 309 309 310 302 301 302 303 306 308 310 311 314 314 314 314 314 315 315 314
300 300 300 300 300 302 302 303 303 303 303 299 296 298 303 305 305 305 305 306 302 306 299 305 308 307 301 298 298 299 299 300 302 306 307 310 310 310 311 311 312 312 312 312
300 300 300 300 301 301 302 302 302 302 302 300 296 300 300 302 301 302 300 303 300 306 304 308 303 300 297 295 295 295 295 296 299 302 302 304 306 307 307 307 307 309 309 309
300 300 300 301 302 302 301 300 300 301 300 301 300 301 299 300 297 301 303 305 301 302 304 303 302 297 295 293 293 293 293 294 298 299 298 300 302 304 303 303 304 304 304 304
300 300 300 301 302 302 300 300 300 299 303 301 299 302 301 300 301 301 303 305 303 305 301 298 294 294 292 292 291 290 290 291 294 295 297 297 298 299 299 299 299 298 297 296
302 301 299 299 296 293 294 298 300 300 298 296 298 302 301 300 301 300 302 305 304 303 297 293 291 292 291 290 289 288 288 289 289 289 290 291 291 291 292 290 290 291 291 290
297 294 291 291 292 292 292 293 295 295 294 294 295 299 302 300 300 301 305 300 298 297 294 290 290 290 289 288 287 287 286 286 286 286 287 287 287 287 287 287 288 289 288 288
290 290 288 287 289 289 290 291 292 292 292 293 298 300 300 299 299 296 297 296 291 291 288 288 287 288 287 286 286 285 285 285 285 285 284 284 285 285 285 285 286 286 286 286
288 287 285 287 282 283 289 290 290 292 293 296 297 297 299 296 293 292 292 291 288 287 287 285 285 285 286 285 285 284 284 284 284 284 284 284 284 284 284 284 284 284 285 284
289 287 286 287 287 286 287 288 288 292 293 293 294 291 292 291 290 290 289 286 286 284 284 283 284 284 284 284 284 284 284 284 283 283 283 283 283 284 284 283 282 283 282 282

GFSNW_850_thetae_069.txt.gz
Theta_e
297 298 299 301 302 303 303 305 304 303 303 301 300 300 301 304 304 305 306 306 308 308 308 308 310 312 312 316 317 318 313 314 316 316 315 316 316 317 317 318 319 320 318 321
297 297 299 299 302 303 304 303 301 303 303 303 300 300 301 303 305 304 305 306 306 306 307 306 308 311 311 316 316 318 318 316 316 316 315 315 315 315 317 317 316 319 320 319
297 298 299 300 301 302 302 300 302 301 302 302 301 301 300 303 303 303 304 305 304 306 305 306 306 307 309 312 317 318 318 319 319 318 316 315 317 317 316 317 317 317 318 318
297 298 299 300 300 301 301 300 301 303 304 303 302 301 302 302 304 303 305 304 304 304 306 306 305 305 306 313 318 318 319 320 319 319 318 317 317 317 317 317 317 317 318 317
297 298 299 299 300 300 301 299 301 303 302 303 302 303 302 303 302 303 304 304 305 304 304 305 305 305 307 312 316 318 317 320 317 318 317 316 316 316 317 316 316 317 317 317
298 298 299 300 300 300 300 301 301 303 303 303 303 303 303 303 303 304 304 304 304 305 305 305 305 306 306 306 316 316 318 317 317 317 316 317 319 317 316 316 317 317 318 317
298 299 299 300 300 300 301 302 302 302 305 303 303 304 303 303 304 303 304 304 304 305 305 305 307 308 310 313 315 315 315 314 314 317 316 321 319 315 316 316 316 316 317 317
299 299 299 300 300 300 300 301 303 303 304 303 303 304 304 303 302 304 303 304 304 305 305 305 306 307 310 309 312 314 313 312 313 314 316 317 314 317 316 316 317 315 315 314
299 300 300 300 300 301 302 301 301 303 304 304 303 303 304 303 302 302 303 304 305 305 304 304 306 305 308 313 315 316 314 312 312 314 316 316 311 314 312 315 318 315 317 316
297 297 300 299 299 300 300 299 300 300 301 304 304 303 303 304 303 302 303 303 303 304 302 304 304 306 307 311 313 313 312 311 316 315 316 313 313 313 316 320 317 318 318 317
298 298 297 297 298 298 299 299 299 299 300 301 303 303 303 304 304 302 303 304 304 302 303 304 304 301 306 308 310 310 311 312 310 314 316 312 314 316 321 316 318 318 318 317
300 300 298 297 298 298 298 299 299 298 299 300 302 304 303 304 304 304 304 305 305 304 303 301 302 301 299 307 308 310 311 310 310 311 312 312 312 313 313 314 318 318 317 318
300 300 301 298 298 298 298 299 299 298 299 299 299 301 304 304 304 304 304 305 306 306 307 303 304 305 303 303 305 307 307 310 311 312 311 312 312 312 314 317 317 317 318 317
300 301 301 300 300 299 300 300 300 299 299 300 301 300 303 305 306 304 304 306 306 307 308 305 301 303 306 303 306 306 306 308 310 310 311 313 314 315 315 316 316 316 317 317
300 301 300 301 300 301 300 300 300 299 299 299 299 303 302 304 306 306 306 306 307 307 305 305 304 305 308 305 306 307 308 309 310 309 311 310 313 315 313 313 315 316 316 316
300 300 301 301 301 301 299 299 299 300 299 302 302 302 303 304 305 306 306 305 305 307 307 306 306 308 308 303 306 306 305 305 306 307 308 307 312 314 314 313 313 315 316 317
300 300 300 301 300 301 300 300 300 299 300 300 301 305 306 306 306 306 306 306 305 306 306 305 306 308 308 305 307 303 302 302 305 306 306 311 311 310 312 313 314 314 314 314
300 299 300 300 301 301 301 301 301 300 300 300 301 304 304 304 304 304 306 306 306 306 306 306 304 307 307 307 299 299 300 300 305 305 305 306 308 310 311 311 312 313 312 311
300 301 300 300 301 301 301 300 300 300 301 301 298 301 306 304 304 304 304 305 303 304 299 302 305 305 298 296 296 297 296 296 298 301 303 305 306 305 307 308 308 307 305 306
300 300 300 300 302 301 300 300 300 301 302 299 297 299 303 303 303 298 299 300 299 305 303 305 298 298 294 293 293 293 292 293 295 297 300 299 300 301 302 302 300 299 299 300
300 300 299 301 301 301 300 299 299 300 300 300 300 299 297 300 299 303 302 303 297 298 301 303 299 295 293 292 291 290 290 292 292 293 294 294 294 295 298 299 298 297 295 294
301 301 301 301 300 299 299 299 298 300 302 299 297 300 299 299 300 299 302 304 303 306 299 296 293 292 291 290 289 287 288 289 289 290 290 290 292 293 292 291 290 289 290 289
300 299 296 295 292 291 292 296 296 295 297 295 297 301 299 299 300 298 302 304 305 297 293 290 290 290 288 287 287 286 286 287 287 287 287 288 288 288 288 287 287 287 287 286
294 291 287 286 286 289 290 291 291 293 293 293 294 299 301 299 300 301 303 295 296 294 290 288 288 288 287 286 285 285 285 285 284 285 286 285 285 285 285 285 285 286 285 285
289 288 286 286 286 287 288 288 291 291 291 293 297 299 297 295 295 293 292 292 289 288 286 287 285 286 285 285 284 284 283 283 283 283 283 283 283 284 283 283 284 284 284 284
287 285 284 285 282 283 286 287 288 290 291 295 295 297 296 292 291 290 290 288 287 285 284 283 284 283 284 284 283 283 283 282 282 282 282 282 283 283 282 284 284 283 284 283
287 284 284 284 284 284 284 285 285 289 292 293 292 289 291 290 290 288 286 284 283 282 281 281 281 282 282 282 282 282 282 282 282 281 281 281 282 283 283 282 281 282 281 281

GFSNW_850_thetae_072.txt.gz
Theta_e
295 295 294 296 298 300 302 303 304 303 303 302 301 301 299 302 303 305 305 306 306 307 307 307 309 311 313 313 314 315 313 312 313 313 314 314 314 315 315 317 318 318 317 318
295 295 293 296 297 299 301 302 301 303 304 304 302 300 300 301 303 304 304 305 305 305 305 305 306 309 310 308 314 318 317 316 314 315 314 314 314 314 315 316 315 318 320 318
295 295 294 297 297 298 300 299 301 300 303 302 302 302 300 300 301 303 303 304 304 305 305 305 305 306 307 306 308 316 316 318 319 318 317 318 317 315 314 316 316 316 317 317
294 295 294 296 298 298 299 298 300 302 302 303 302 302 301 300 302 302 303 303 303 304 304 305 304 305 306 307 310 315 317 317 319 319 319 318 318 318 316 314 315 316 316 316
294 294 294 295 297 298 299 298 300 302 301 303 303 302 302 301 300 302 302 302 304 303 303 304 305 304 303 305 309 315 316 315 316 317 317 317 317 317 315 314 314 314 314 315
295 296 296 297 298 298 300 299 300 303 303 303 304 303 302 301 302 302 303 304 304 304 303 303 304 304 304 304 305 305 313 315 315 315 317 316 314 316 315 315 314 315 316 315
296 296 296 298 298 298 300 299 300 302 304 303 304 303 303 303 302 303 304 302 304 304 304 304 304 304 304 304 305 306 312 314 313 313 314 317 312 314 313 315 315 314 313 315
297 298 299 297 298 298 299 299 300 301 303 303 303 304 303 302 303 303 303 303 303 303 304 304 305 305 308 307 307 308 313 311 312 310 314 313 312 311 316 313 313 312 314 314
298 298 298 298 298 299 299 299 301 302 303 304 303 303 303 303 302 302 302 303 303 303 304 305 309 305 307 309 313 310 310 310 310 313 314 313 309 312 313 314 312 314 315 314
298 299 298 299 299 299 299 300 300 301 302 303 303 303 304 303 303 302 302 302 303 304 303 306 307 307 305 307 313 312 313 311 314 314 314 312 310 314 315 317 312 313 316 316
298 297 298 299 299 300 299 300 300 300 300 302 303 303 304 303 302 303 302 304 303 302 303 304 305 303 304 305 308 310 310 311 314 313 314 314 311 316 319 315 312 312 314 317
299 298 297 297 300 300 299 298 299 300 300 300 302 303 303 304 304 303 303 304 303 302 301 300 301 301 299 305 307 308 308 307 309 309 310 309 311 312 313 312 312 312 313 314
299 300 298 298 299 299 299 299 299 299 299 299 299 301 303 303 303 303 304 304 304 304 304 301 302 303 301 302 304 306 306 308 310 309 307 308 309 310 311 312 312 313 313 316
300 300 299 298 298 298 299 299 299 299 299 300 299 299 301 303 304 304 304 304 304 306 307 303 300 302 304 301 304 304 304 307 308 308 307 310 310 311 312 312 313 314 315 316
301 301 300 299 298 297 298 299 298 299 299 299 298 301 301 302 304 304 304 304 304 306 305 301 301 303 305 302 304 304 307 307 307 306 307 306 308 309 310 311 312 313 313 315
300 300 300 300 298 298 298 299 298 298 299 300 300 300 302 301 304 304 305 305 305 306 306 304 304 307 306 300 304 305 304 304 305 307 305 306 308 309 309 309 309 312 314 314
300 300 300 300 300 299 300 299 300 299 299 299 295 302 302 302 304 305 305 305 304 305 305 305 305 306 306 304 307 301 302 301 301 304 304 306 305 305 306 308 307 309 309 309
300 301 300 301 300 300 300 301 300 299 299 300 299 302 304 303 304 304 305 306 306 306 305 304 303 305 306 306 298 298 298 297 300 301 301 302 304 304 304 306 304 306 306 306
300 300 300 299 299 300 300 300 300 300 300 299 300 301 304 304 303 304 303 304 303 303 302 301 305 303 300 295 295 295 294 294 295 296 300 301 303 299 301 302 302 299 299 300
299 299 300 300 300 300 299 300 300 299 300 300 300 298 303 302 301 299 301 300 301 304 303 302 296 296 292 292 291 290 290 291 293 294 297 297 297 295 296 296 295 295 294 294
300 300 299 300 300 301 300 298 299 299 299 298 299 298 300 301 299 302 300 302 296 303 300 304 298 294 292 290 289 287 287 289 290 291 292 292 292 293 294 293 292 291 289 289
301 300 300 301 300 298 299 299 299 299 300 298 300 299 299 299 300 300 301 298 302 303 296 295 291 291 288 288 287 286 285 287 287 287 287 288 289 288 289 288 287 287 287 287
300 297 294 293 289 287 289 294 297 296 294 293 297 299 298 299 300 299 302 303 302 294 291 290 288 288 287 286 285 284 285 285 284 284 284 285 285 285 285 285 284 284 284 284
292 288 284 284 284 287 288 289 289 292 292 292 294 299 300 299 299 296 301 294 293 292 289 287 286 286 285 285 284 283 283 283 282 282 282 282 282 282 283 283 283 283 283 283
287 286 284 284 285 285 286 287 289 289 290 293 297 297 294 292 291 290 292 290 288 288 286 286 284 283 284 283 283 282 282 282 281 281 281 281 281 281 281 281 282 283 283 283
285 284 283 283 283 283 284 284 286 288 292 294 294 295 292 291 290 288 287 287 285 283 282 281 282 282 282 282 282 282 281 281 281 281 281 281 281 281 281 281 282 281 281 281
285 283 283 282 282 282 283 283 284 288 291 291 290 288 289 289 288 285 283 281 281 281 280 281 281 282 282 282 282 282 282 282 281 281 281 281 281 281 282 281 280 280 280 280

GFSNW_850_thetae_075.txt.gz
Theta_e
295 296 295 295 295 296 298 299 302 302 302 303 300 302 301 300 301 303 305 306 306 307 307 306 307 311 311 306 312 316 315 312 314 313 313 314 315 317 318 320 319 320 320 321
294 295 295 294 295 295 298 300 301 302 303 304 303 302 301 300 301 304 304 305 305 305 306 306 306 307 309 306 307 307 315 317 316 315 315 316 316 315 316 317 316 319 322 320
293 295 295 293 295 294 297 300 300 300 303 303 304 303 301 300 300 301 304 304 304 305 306 305 306 306 306 305 306 307 315 317 319 318 318 318 320 319 319 317 319 318 319 318
294 295 295 293 295 294 297 299 299 301 302 302 303 303 302 301 301 301 302 303 304 304 305 305 305 305 305 305 306 312 314 314 314 314 313 314 316 317 317 318 318 317 317 317
293 293 292 292 294 294 297 298 299 300 300 302 303 303 303 302 301 302 301 303 303 304 304 304 304 305 304 304 306 307 307 316 317 316 315 314 316 316 314 317 317 316 316 316
296 295 294 293 294 294 297 298 298 301 303 303 304 303 303 302 301 301 302 303 302 303 304 303 304 303 304 304 305 305 307 315 316 316 317 317 315 313 316 315 316 316 318 317
298 297 296 295 294 294 295 298 298 300 301 303 304 304 303 303 302 302 302 302 304 304 304 304 304 303 303 304 304 305 306 308 314 314 314 316 312 314 315 314 315 315 315 314
298 298 298 297 296 295 295 297 299 300 301 303 303 303 303 302 302 302 302 303 302 302 303 305 306 305 308 307 305 306 306 308 315 316 315 313 312 311 312 315 314 316 316 317
298 298 298 298 297 296 296 297 298 300 302 302 303 303 303 303 303 303 302 302 303 303 304 305 307 308 307 308 310 307 308 310 313 312 315 315 311 312 315 313 315 315 316 318
299 298 298 298 298 297 297 298 298 300 300 301 303 303 304 302 302 303 302 302 302 302 305 305 306 306 306 307 312 309 309 312 312 312 313 314 312 312 316 315 315 314 313 315
300 299 298 299 298 298 298 298 299 300 300 302 302 303 304 303 302 303 302 303 302 304 305 306 306 306 307 306 308 312 311 311 312 312 313 313 310 315 315 314 314 312 312 312
301 299 298 299 299 298 298 299 299 300 300 301 302 303 303 303 303 303 302 304 303 303 304 304 304 305 304 307 308 308 312 312 314 313 313 310 311 311 309 310 312 312 312 312
300 299 298 298 299 299 298 299 300 299 299 300 301 302 303 303 303 303 303 303 303 303 303 303 304 305 304 308 308 308 308 307 310 310 310 310 308 308 310 310 310 311 312 312
300 299 299 298 298 299 299 299 299 300 299 300 300 302 303 303 303 303 303 303 304 304 303 304 303 306 303 305 306 306 306 307 309 309 309 309 309 309 308 309 310 311 312 312
300 299 299 298 298 299 298 299 299 299 300 299 299 300 301 301 303 303 303 303 303 304 306 305 306 303 307 304 306 308 307 308 309 309 306 305 306 307 306 306 306 306 306 309
301 300 299 299 298 299 298 298 298 299 299 299 300 299 301 300 303 303 304 304 304 304 305 304 305 306 306 306 307 305 305 304 303 305 304 305 306 306 306 305 304 303 304 304
300 300 299 299 298 299 299 299 299 299 299 299 299 301 302 301 301 302 303 304 305 304 305 305 305 305 306 305 305 302 300 298 300 301 302 305 304 304 303 303 304 301 299 304
300 300 299 298 298 298 300 300 299 298 298 299 298 299 302 302 303 302 303 303 303 303 302 303 305 305 305 305 297 297 294 295 298 295 296 298 300 301 301 300 305 301 303 305
300 299 298 299 298 298 298 299 299 299 299 299 297 299 304 302 302 302 300 301 303 301 302 303 305 304 302 295 293 292 292 292 292 294 295 297 297 296 296 297 300 296 293 295
300 299 300 299 300 299 299 300 300 299 299 300 299 299 302 302 301 300 301 301 303 304 303 301 301 295 291 290 289 289 288 289 290 291 293 292 292 292 291 291 291 291 290 290
300 300 300 299 300 300 299 298 299 299 300 298 298 298 300 300 302 302 300 303 301 302 303 304 298 293 290 288 287 286 286 286 287 287 289 289 289 288 288 287 287 287 286 286
300 300 299 300 298 298 298 299 298 300 300 297 301 298 298 299 301 302 300 302 301 302 296 296 291 289 287 286 286 284 284 284 285 285 285 286 286 286 286 284 283 283 283 283
299 297 292 292 288 288 290 294 296 296 294 293 296 299 298 298 300 301 302 299 297 292 291 288 288 287 286 285 284 283 283 283 283 283 282 282 283 283 283 282 281 282 282 281
291 288 284 283 283 287 287 288 290 290 290 291 295 299 297 295 296 294 297 292 293 291 288 287 285 284 284 283 283 282 282 281 281 281 281 280 280 280 281 281 281 282 281 281
286 286 284 284 284 284 285 285 287 288 290 293 297 294 293 291 290 290 292 290 288 287 286 285 283 282 282 282 282 281 281 281 280 280 280 280 280 280 280 280 281 281 281 281
284 282 283 283 283 283 283 283 285 288 291 293 292 293 291 290 288 287 286 287 285 284 282 282 281 281 281 281 281 281 281 280 280 280 280 280 280 280 280 280 280 280 280 280
284 282 282 281 282 282 282 282 283 287 290 290 289 288 288 289 287 284 283 283 283 281 280 280 280 280 280 281 281 280 280 280 280 280 280 279 280 280 281 280 279 279 279 279

GFSNW_850_thetae_078.txt.gz
Theta_e
293 294 294 297 296 295 295 298 301 301 302 304 301 305 304 302 304 303 305 307 308 309 308 308 308 313 310 307 310 314 315 315 317 317 316 316 317 318 319 321 321 321 322 323
293 293 294 295 296 295 297 299 300 300 303 304 303 304 304 303 304 304 305 306 307 307 308 308 308 308 308 307 308 310 314 315 314 314 315 316 317 318 318 319 319 321 325 322
293 293 293 294 296 294 295 298 302 300 302 302 305 304 305 304 302 303 303 305 306 307 307 307 308 308 307 306 306 308 311 319 319 316 318 318 320 319 319 321 321 320 320 320
293 293 294 294 296 294 295 297 300 301 303 302 304 304 304 305 304 302 303 304 305 306 307 307 307 307 306 306 306 310 313 314 315 317 317 315 317 317 318 318 320 322 320 319
294 293 293 293 295 294 295 297 299 300 301 302 303 304 306 305 305 304 304 304 305 305 306 306 306 306 306 306 307 308 310 311 312 312 313 313 313 314 316 317 317 318 320 320
297 296 294 293 294 294 295 296 297 299 300 303 304 305 306 305 305 304 303 304 304 305 305 305 305 305 306 306 307 307 308 314 315 314 314 313 315 315 315 316 319 320 320 316
298 297 297 295 294 293 295 296 297 298 300 302 303 303 305 305 305 304 303 303 304 305 304 305 305 306 306 307 307 307 308 311 314 314 316 315 314 314 316 318 316 317 317 316
299 298 298 297 295 294 293 296 297 298 300 300 300 301 304 304 304 304 303 303 303 304 305 306 307 308 308 309 309 309 308 310 313 315 313 312 312 312 314 315 314 318 318 318
299 299 299 298 298 295 294 295 296 298 300 301 300 302 304 305 305 305 303 302 304 304 306 306 308 309 308 309 310 309 308 309 312 314 312 313 313 314 315 314 314 315 317 316
299 300 299 299 298 298 295 295 295 297 298 299 300 302 303 304 304 305 304 304 304 303 307 308 308 308 307 309 310 309 309 310 311 312 314 314 313 312 315 315 315 313 313 312
300 300 300 299 299 298 297 297 295 296 298 299 301 302 303 303 304 305 304 304 304 304 306 307 308 308 308 308 309 310 310 311 312 311 312 313 313 313 314 313 312 313 313 313
300 300 300 299 299 298 298 297 297 296 298 300 301 302 302 303 303 303 303 304 305 305 306 307 307 308 308 307 309 308 311 310 312 312 312 313 313 312 312 313 313 313 313 313
299 300 300 299 299 299 298 298 297 296 298 298 300 301 302 303 303 302 303 303 305 305 305 307 307 307 307 309 308 308 310 310 312 312 311 311 311 311 311 311 311 311 310 310
299 300 300 299 299 299 298 298 298 298 299 301 301 300 301 303 303 303 303 304 304 305 305 306 307 307 307 308 308 309 309 309 309 309 310 310 310 310 309 308 309 309 307 306
299 299 299 299 298 299 298 298 300 298 300 302 301 301 302 301 302 304 303 303 304 305 306 307 308 307 308 309 309 308 308 309 310 309 309 308 309 308 306 307 307 306 304 303
299 300 299 298 299 299 298 299 299 299 299 300 302 302 302 302 303 303 303 303 303 303 304 307 307 307 308 309 308 308 307 306 305 306 304 305 306 307 305 303 303 302 301 299
299 299 299 298 298 298 299 299 298 299 299 300 302 302 302 301 302 303 304 303 303 303 303 306 307 307 306 309 309 302 298 298 299 298 300 304 303 301 300 301 299 298 297 297
299 298 298 297 298 299 300 299 299 300 299 300 303 303 304 302 303 304 303 304 304 304 303 304 307 307 307 307 298 296 294 295 297 295 295 297 298 299 299 298 298 296 294 295
299 298 297 298 299 299 300 299 299 299 299 301 300 304 305 303 303 302 301 302 304 302 304 306 306 308 304 294 292 292 291 292 292 292 295 296 295 294 293 294 294 292 290 290
298 298 299 298 299 298 298 299 298 299 300 300 303 302 303 303 302 303 303 300 306 307 305 302 306 296 290 290 289 289 289 289 289 291 293 291 293 292 291 289 288 287 287 286
299 300 300 298 299 300 299 299 301 300 301 300 301 301 303 300 305 304 301 306 304 307 304 307 302 297 291 288 288 287 287 287 288 288 288 288 288 288 287 286 285 284 284 283
300 299 299 299 298 300 301 302 301 302 302 299 302 299 299 299 301 305 302 305 304 305 299 302 298 291 288 287 287 286 286 286 286 285 285 285 285 284 284 283 281 282 282 282
300 296 292 295 291 295 299 300 300 300 296 296 298 301 299 300 301 303 303 303 301 297 298 295 291 287 286 286 285 285 284 284 283 283 282 282 281 281 281 280 279 280 280 280
292 292 291 293 292 292 292 294 294 292 292 294 297 299 300 298 298 297 300 295 297 298 297 292 288 285 285 284 284 283 282 281 280 280 280 279 279 279 280 280 280 280 281 281
289 290 290 290 287 288 287 287 290 289 290 293 298 297 297 295 295 294 296 295 294 292 292 288 285 284 284 283 283 282 281 280 280 279 279 279 279 279 279 279 280 280 280 280
286 285 290 287 290 289 287 287 289 287 290 294 295 296 295 293 291 292 291 293 292 288 287 284 283 282 281 281 280 280 280 280 279 279 279 279 279 279 278 279 279 279 279 279
285 285 284 284 285 285 284 284 285 287 292 295 294 294 292 291 291 288 287 288 287 284 282 281 280 280 280 280 280 280 280 279 279 279 279 279 278 279 279 279 278 278 278 278

GFSNW_850_thetae_081.txt.gz
Theta_e
293 294 295 295 296 297 296 298 301 303 303 304 303 305 305 306 305 305 307 309 310 310 310 310 311 316 310 309 311 315 313 315 316 317 315 316 318 318 320 323 324 324 324 325
293 293 295 294 295 297 298 298 299 302 303 305 306 305 305 305 306 306 306 307 308 309 309 309 309 311 310 309 309 311 311 315 315 319 317 316 317 318 319 321 321 324 329 325
293 293 293 293 293 295 297 298 302 301 303 303 305 304 305 305 305 306 305 306 307 308 309 309 309 309 309 308 308 307 311 316 318 319 318 318 318 319 319 319 322 321 321 322
293 293 292 293 294 295 296 297 300 302 303 304 304 305 306 305 306 305 305 306 306 307 308 308 309 309 309 307 307 308 312 315 317 318 319 317 319 320 320 320 321 322 322 322
296 294 293 293 294 294 296 297 299 300 301 302 303 304 304 306 305 306 305 306 306 307 308 308 309 309 309 309 308 309 310 311 313 314 314 316 316 316 317 317 318 318 318 319
297 297 295 293 293 294 297 297 298 299 301 302 304 305 304 305 306 305 305 306 307 307 307 307 307 307 307 308 308 309 310 312 311 315 314 316 317 316 316 316 316 317 319 319
298 298 297 296 293 293 296 297 297 299 301 302 302 303 305 305 306 308 306 305 306 306 306 306 306 307 307 307 309 309 310 310 313 315 315 316 315 315 316 317 317 318 319 318
298 299 299 298 296 293 294 297 297 298 301 301 302 302 304 304 304 306 306 305 305 305 306 308 308 309 309 309 309 309 310 311 312 313 313 312 312 313 313 314 316 318 318 318
299 299 299 299 298 295 294 296 297 298 300 301 299 301 302 303 305 307 306 305 305 305 307 308 309 310 310 311 310 310 310 310 312 313 313 312 312 314 314 315 315 317 317 316
300 301 300 299 299 298 295 296 296 297 299 299 299 301 301 302 304 307 306 305 305 304 308 308 309 311 310 311 312 311 311 312 312 313 313 313 315 314 314 316 316 314 314 315
300 300 300 300 299 298 298 295 296 296 298 299 299 300 302 301 304 307 306 306 305 304 309 308 309 310 310 309 310 312 312 313 313 312 314 314 312 313 315 315 314 314 314 314
300 300 300 300 300 299 298 297 296 296 297 299 299 299 301 302 303 303 305 305 305 305 307 308 308 310 310 310 310 312 313 311 312 311 312 314 315 313 314 313 313 314 313 312
299 299 300 300 301 300 298 297 297 297 297 298 299 300 301 302 303 303 305 304 305 306 306 308 309 310 309 310 310 310 311 310 313 314 314 313 312 313 312 312 312 311 311 310
299 299 299 300 300 300 298 298 297 297 297 298 300 299 299 302 303 304 304 303 304 305 306 308 309 309 308 309 309 311 310 311 310 311 311 311 312 311 310 309 310 309 309 309
299 300 299 300 300 299 299 298 298 298 298 301 299 302 302 301 302 303 303 303 303 305 306 308 309 308 309 309 310 310 309 311 311 312 310 311 311 308 307 308 307 306 306 305
300 299 299 300 300 299 298 298 298 298 298 301 304 302 303 303 302 302 302 303 304 304 303 305 307 307 309 310 310 307 306 305 304 305 303 305 307 305 302 303 304 303 302 302
299 299 300 300 299 298 298 299 299 298 298 301 303 304 303 303 303 303 304 304 302 303 304 306 307 308 307 309 309 302 301 301 301 300 300 304 302 301 298 299 298 298 298 298
299 299 299 298 298 298 299 299 300 299 300 300 303 305 304 303 304 304 303 302 302 302 303 305 308 307 308 308 299 297 297 298 299 297 297 298 298 298 298 296 295 295 293 292
299 298 298 298 299 299 299 299 299 300 300 303 303 305 307 303 304 303 302 301 304 302 305 306 307 308 304 296 295 295 293 294 294 295 296 297 296 296 295 295 294 294 292 290
297 298 298 299 300 299 299 299 299 300 301 302 303 304 306 303 304 304 303 303 307 307 305 306 308 297 292 292 291 291 291 291 292 293 294 292 293 292 292 291 290 289 287 286
300 300 299 299 299 300 301 300 302 301 302 302 303 303 304 302 304 304 304 306 306 307 305 307 305 298 292 290 290 289 289 289 289 289 289 289 289 289 289 288 286 285 284 282
300 299 299 299 299 301 303 303 302 303 304 301 302 302 302 300 301 305 302 306 305 307 302 307 302 292 289 289 288 287 287 287 287 286 286 286 285 285 285 285 283 281 280 280
299 297 295 297 296 301 304 302 302 302 299 299 299 302 300 300 301 304 306 307 304 300 304 298 293 289 287 287 287 286 285 284 285 284 283 283 282 282 282 281 280 280 279 279
295 296 294 297 297 295 296 298 298 294 296 298 298 301 303 301 301 302 302 298 300 302 302 296 291 287 286 285 285 284 283 282 282 281 280 279 279 278 279 278 278 278 278 279
292 294 295 293 291 291 291 291 294 292 293 295 300 301 300 299 299 298 298 299 299 297 296 291 287 285 285 284 283 283 282 281 280 280 279 278 278 278 278 277 278 278 278 277
289 289 293 291 295 293 291 292 292 290 292 296 299 300 299 296 296 297 296 298 297 292 289 286 285 283 282 282 281 281 281 280 280 279 278 278 278 278 277 278 278 278 278 278
289 288 287 289 289 289 289 289 290 290 295 297 299 298 295 295 295 293 291 291 289 286 284 283 282 282 281 281 280 280 280 280 279 279 278 278 278 278 278 277 277 277 277 277

GFSNW_850_thetae_084.txt.gz
Theta_e
294 294 293 295 296 296 297 299 300 302 301 305 304 306 305 304 306 306 306 307 308 310 311 311 312 317 312 310 310 314 315 315 313 313 316 316 319 319 319 325 329 325 326 328
293 294 294 293 295 296 297 299 299 299 304 305 305 304 305 305 306 307 306 306 307 308 310 309 311 311 312 310 309 309 310 314 314 315 315 316 316 318 319 320 322 327 329 328
294 293 294 294 294 295 295 299 301 299 302 304 305 305 305 305 304 305 306 306 307 307 308 309 310 310 310 309 309 307 309 313 316 320 320 320 317 317 320 321 323 324 325 325
295 294 293 293 293 294 295 298 300 302 304 304 304 305 306 306 305 306 305 306 306 306 307 308 308 309 309 309 307 308 310 314 313 314 318 318 320 320 320 319 321 323 322 322
296 296 294 293 293 293 295 297 298 299 301 303 303 304 305 305 306 306 306 306 306 306 306 306 307 309 310 311 310 309 309 311 312 312 315 315 315 318 316 320 321 321 320 320
297 297 296 295 293 293 295 297 298 299 301 302 303 305 304 304 305 306 306 307 305 306 307 308 308 308 309 309 309 309 310 310 312 313 313 315 318 317 316 316 316 317 318 319
298 298 298 297 294 293 296 296 298 299 300 301 303 303 304 304 305 305 306 306 308 307 307 308 308 308 308 308 308 308 309 310 311 314 313 318 316 316 316 317 316 316 317 320
298 298 298 298 296 293 295 296 298 298 300 300 300 301 303 303 305 306 306 306 307 307 307 308 308 308 309 309 308 309 310 310 313 314 313 312 312 313 313 313 314 318 319 318
298 299 299 298 298 296 293 295 296 299 299 300 300 301 301 303 305 305 306 306 307 306 307 308 308 309 309 311 310 310 310 312 312 314 313 312 311 312 314 314 314 317 316 316
299 299 299 299 299 298 296 295 296 297 299 299 300 301 301 302 303 305 305 307 306 305 308 309 308 309 309 311 312 311 311 312 313 313 314 313 312 314 314 315 318 315 315 315
299 300 299 300 299 299 297 296 296 296 298 298 299 300 301 302 302 305 306 304 306 305 307 309 308 310 311 311 311 312 312 313 313 312 313 314 313 313 315 316 314 314 314 313
300 300 300 300 300 300 299 298 296 297 297 298 299 299 300 301 302 303 303 304 305 305 307 307 308 311 312 311 310 312 312 311 312 311 311 312 315 315 314 314 314 313 312 311
299 300 300 300 300 300 299 298 297 296 298 297 297 298 300 301 301 303 304 303 305 306 306 308 310 311 310 311 310 311 313 311 313 313 313 314 313 312 311 312 311 310 310 310
299 299 299 300 300 300 300 297 298 297 297 298 299 299 298 300 303 302 303 303 304 304 304 306 309 311 309 311 310 310 311 311 312 313 312 312 310 310 309 309 308 307 307 307
299 300 299 299 299 300 300 298 297 298 298 300 299 300 301 301 300 303 304 304 303 304 303 304 309 308 309 310 311 312 310 310 313 314 307 308 307 306 306 306 306 305 304 304
299 300 299 300 299 300 299 297 298 298 298 300 304 303 301 303 301 302 303 304 304 303 302 305 307 307 309 311 310 306 305 304 303 304 303 307 305 302 301 301 301 300 299 297
299 300 299 300 300 300 298 300 299 298 298 299 303 305 302 303 303 303 304 304 303 303 303 305 306 308 308 309 310 302 300 302 300 299 301 303 301 300 299 299 298 299 296 294
300 300 300 300 300 299 299 300 299 299 300 299 302 304 305 304 304 304 304 304 302 302 303 305 307 307 308 306 299 297 296 299 297 297 299 299 299 298 298 297 297 297 294 292
299 299 300 298 298 299 299 299 299 299 300 301 303 305 306 303 304 302 302 302 303 302 303 305 307 306 299 296 295 294 294 294 294 295 297 295 295 295 294 293 292 292 290 289
298 298 299 300 299 299 299 300 300 300 300 302 304 304 306 304 304 304 302 302 306 306 305 306 307 296 293 293 292 292 292 292 292 292 292 291 291 291 291 290 288 287 286 286
300 299 300 299 300 300 300 299 302 301 304 302 304 304 305 303 306 305 304 305 306 306 307 306 305 297 293 291 290 289 289 289 289 289 288 288 288 288 288 287 285 284 282 281
300 299 299 299 300 301 302 303 303 303 303 302 304 303 303 302 302 305 303 304 305 306 303 306 299 293 290 289 288 287 286 286 286 286 285 285 285 285 285 283 282 281 280 279
299 299 297 299 298 303 304 302 304 303 301 300 301 301 301 300 301 301 303 306 305 303 305 297 293 289 287 287 286 285 284 284 283 283 282 281 281 281 281 280 280 279 279 278
296 297 296 298 298 296 296 298 298 295 297 299 301 301 303 301 302 302 302 300 302 304 303 294 289 287 286 285 284 283 282 281 281 280 279 279 279 278 278 278 278 278 278 278
294 295 296 294 293 293 294 294 295 294 296 298 301 302 300 300 300 300 300 301 300 297 294 290 287 285 284 284 283 282 281 281 280 279 279 278 278 278 277 278 278 278 278 278
290 291 295 294 295 295 293 294 294 293 295 298 301 301 300 298 299 299 298 301 296 292 289 286 285 284 283 282 282 281 281 281 280 279 278 278 278 278 278 278 278 278 278 278
290 290 290 292 291 291 291 291 292 294 297 299 301 298 296 297 297 293 290 291 289 286 285 284 283 283 282 281 281 281 281 280 279 279 278 278 277 277 277 277 277 277 277 277

GFSNW_850_thetae_087.txt.gz
Theta_e
294 293 293 294 294 296 296 297 297 298 301 301 303 305 305 305 305 304 306 306 307 308 309 310 311 315 312 309 309 309 310 314 313 312 313 314 316 317 320 325 323 325 327 327
295 294 293 294 294 295 296 298 298 298 301 300 304 304 305 305 306 305 306 306 306 307 307 309 310 313 311 310 309 308 307 315 317 315 314 314 315 318 319 319 320 325 326 327
296 295 294 293 294 294 295 296 296 299 300 300 303 303 304 304 304 305 305 305 306 306 306 308 309 310 311 309 308 308 309 312 315 318 319 315 319 318 318 321 323 321 325 325
297 296 295 294 293 294 295 296 298 299 294 302 302 303 306 307 305 305 305 305 305 306 306 307 307 308 309 311 308 308 309 312 313 313 313 316 316 318 318 320 320 323 322 322
297 297 296 295 293 294 295 296 297 299 300 300 303 303 303 304 304 305 306 306 306 305 305 306 306 309 310 310 310 309 309 311 311 311 312 313 317 317 317 317 320 322 321 321
297 298 297 296 294 293 295 295 295 297 299 299 301 301 304 304 304 304 304 306 306 308 307 308 308 308 308 309 309 309 309 310 311 313 312 312 316 317 318 318 318 318 321 320
297 298 298 298 296 294 293 295 295 298 295 298 300 301 302 303 304 304 304 305 306 307 307 308 308 307 308 308 308 308 308 309 311 310 309 315 316 315 316 315 317 317 319 318
297 298 298 298 298 296 294 293 296 298 294 298 299 300 301 301 303 304 305 305 306 306 305 306 307 306 307 307 307 307 307 308 308 311 313 312 311 312 313 312 318 318 318 317
298 298 298 298 298 298 296 293 295 297 298 297 299 299 300 301 302 303 304 305 305 305 303 305 306 306 308 308 309 307 307 308 309 309 313 311 311 313 314 315 318 316 316 316
299 299 298 298 299 298 297 296 294 297 297 298 298 300 300 301 302 303 303 304 304 304 303 302 304 306 307 309 311 310 308 308 309 309 311 312 312 313 314 316 316 314 313 313
299 299 299 299 299 299 299 296 295 295 297 297 298 299 299 301 301 300 304 302 303 303 303 304 304 303 307 309 310 311 309 309 309 309 310 311 313 314 316 315 313 312 311 311
299 299 300 300 300 299 299 297 296 295 296 297 297 298 297 298 300 301 302 303 302 304 303 304 304 305 307 309 312 311 310 309 309 309 309 311 312 313 312 311 310 310 309 309
299 299 299 300 300 300 299 298 298 296 298 297 296 296 298 299 299 300 302 302 303 304 304 305 307 306 308 310 309 312 309 311 310 310 312 310 308 309 308 308 307 307 307 306
299 298 299 299 300 300 299 299 298 297 297 297 297 297 297 296 299 301 301 301 303 303 302 303 304 307 308 308 310 309 310 310 311 312 309 307 307 305 307 305 305 305 305 304
298 299 299 299 300 300 299 300 298 298 297 298 298 298 299 300 298 300 303 303 303 303 302 302 304 306 307 308 309 309 305 305 309 307 303 306 304 303 303 303 302 301 302 300
299 299 299 299 299 300 301 296 297 298 297 299 299 301 302 299 301 299 302 302 303 302 302 302 303 305 306 308 308 302 301 300 299 300 301 303 300 300 299 299 299 298 297 295
300 299 299 299 299 299 299 298 298 298 297 298 300 299 302 302 302 301 301 303 303 302 303 304 305 306 306 305 304 298 297 298 297 298 301 299 299 298 297 297 297 295 293 291
299 299 299 299 300 299 300 300 299 297 298 298 299 300 301 303 303 303 303 303 303 302 302 303 305 306 304 300 296 295 295 295 294 296 295 295 296 295 294 294 294 292 290 290
299 299 299 300 299 299 299 299 298 299 299 299 299 299 303 303 303 303 303 302 301 301 302 303 305 299 296 295 293 292 292 292 292 293 291 291 291 291 291 290 289 289 287 287
299 299 299 299 299 299 299 300 299 299 300 301 301 302 303 303 301 302 301 301 303 304 302 304 297 293 292 291 290 289 289 289 289 289 289 288 288 289 287 286 286 285 284 284
299 299 300 299 299 300 299 298 299 298 299 301 302 302 303 303 302 303 303 301 302 303 304 305 299 294 291 289 287 287 287 287 286 286 286 286 286 286 285 283 283 282 281 281
300 299 299 299 300 301 301 299 301 300 302 302 302 302 302 301 302 302 302 302 302 305 302 303 295 290 288 287 285 285 284 284 284 283 283 283 283 283 282 281 280 280 279 279
300 300 298 299 298 301 298 300 301 300 300 300 301 301 301 300 301 301 301 303 302 301 299 292 289 288 286 285 284 283 282 282 281 281 280 280 281 281 281 280 279 279 278 278
296 297 291 296 296 295 295 297 297 295 298 301 301 300 301 302 299 300 299 298 299 303 295 287 287 286 285 284 283 282 281 280 279 279 279 279 279 278 278 278 278 278 278 277
293 294 294 292 293 294 294 295 295 295 298 301 301 299 300 298 296 298 297 300 296 292 287 286 285 284 283 283 282 281 281 280 279 278 278 278 278 278 278 277 278 278 277 277
290 291 294 294 293 292 292 294 294 295 297 299 301 297 297 295 298 297 292 295 288 286 286 284 283 283 282 282 281 281 280 279 279 278 278 278 278 278 277 277 277 277 277 277
290 290 290 292 291 291 290 291 292 295 297 295 298 297 295 296 293 288 287 285 285 285 284 284 283 282 281 281 281 281 280 279 279 278 278 278 278 278 278 278 277 277 277 277

GFSNW_850_thetae_090.txt.gz
Theta_e
295 295 295 294 293 294 295 296 296 299 299 298 301 300 305 304 305 305 305 306 306 307 307 308 310 315 313 309 308 308 307 311 310 310 310 315 316 318 318 324 322 323 326 325
296 296 295 294 293 294 295 296 297 297 299 297 299 303 304 304 305 304 305 305 306 305 306 306 311 312 310 309 308 307 307 311 314 314 314 315 316 316 316 319 319 323 324 325
296 297 296 295 293 294 294 295 295 298 298 299 300 301 303 304 304 304 304 305 305 305 306 306 307 311 311 309 308 308 308 309 313 316 315 315 316 314 316 318 322 319 323 322
296 296 297 295 294 294 294 295 292 297 300 300 298 300 304 305 304 305 306 305 305 305 305 305 305 307 308 309 309 307 308 310 312 312 311 315 316 316 316 318 319 323 322 322
296 297 297 296 294 293 294 295 295 297 298 299 300 302 303 304 303 304 305 306 306 306 307 306 305 308 308 309 309 308 307 308 309 310 311 311 311 316 316 317 318 320 320 321
296 297 298 297 295 294 294 294 295 295 296 298 298 301 302 302 304 304 304 304 305 306 307 306 306 307 307 308 308 308 308 309 309 311 310 308 312 315 317 315 317 316 318 318
296 298 298 298 297 295 293 294 294 295 293 296 298 299 300 300 301 303 304 304 306 306 306 305 305 307 307 307 307 307 307 307 308 309 309 308 311 311 314 317 318 316 318 319
296 297 297 298 298 297 295 294 294 297 291 296 297 298 299 299 300 302 303 304 305 305 305 305 306 305 305 306 306 306 306 306 305 308 310 310 308 310 313 315 318 317 317 317
296 297 297 298 298 298 297 295 293 296 297 295 297 298 298 298 298 300 303 304 305 305 303 304 307 306 306 307 307 306 306 305 306 306 310 309 310 312 312 315 318 316 315 315
298 299 298 298 298 298 298 296 296 294 296 295 296 298 299 300 300 299 300 303 303 304 300 302 305 305 306 306 309 310 307 305 307 307 308 310 311 313 314 315 316 312 312 312
298 299 299 299 298 298 298 298 297 295 295 295 296 297 298 300 300 301 301 299 302 302 303 303 303 301 305 307 307 308 309 309 308 306 310 310 311 314 315 312 310 310 309 309
299 299 299 299 299 299 299 298 297 297 295 296 296 296 297 297 298 298 300 301 301 302 304 302 302 301 300 306 308 310 311 309 308 307 307 310 309 308 308 308 308 307 306 306
298 298 299 299 300 299 299 299 298 296 295 295 294 295 297 297 297 298 299 300 301 302 301 303 305 305 305 305 307 309 306 307 310 310 310 307 308 306 306 305 305 304 304 303
298 298 298 298 299 300 299 299 299 298 296 296 297 297 297 296 296 299 300 300 301 302 302 301 302 303 306 309 309 307 307 308 306 311 308 305 304 304 304 303 302 302 303 301
298 298 298 298 299 300 300 300 299 299 297 296 297 298 297 298 298 296 298 300 301 303 301 301 303 303 306 306 306 304 301 302 306 304 300 303 300 300 300 301 300 298 298 298
298 298 299 298 298 299 301 297 298 298 297 299 299 300 301 300 299 299 297 300 303 303 300 301 301 304 304 305 305 298 297 297 297 298 300 299 298 298 298 298 296 295 295 293
299 299 299 298 299 300 300 298 298 298 297 298 298 298 301 301 299 299 297 300 301 302 301 302 303 304 303 301 299 296 296 295 295 296 299 296 296 294 296 295 294 293 293 292
299 299 299 298 299 300 299 299 299 298 297 298 296 295 299 301 301 301 300 301 302 302 302 302 304 304 299 294 294 292 292 293 292 292 293 292 293 293 293 292 292 291 290 288
299 299 299 299 299 299 299 299 298 297 298 298 297 293 297 301 302 302 301 302 302 301 302 301 303 296 294 293 291 289 289 289 290 290 290 290 290 290 289 289 288 287 286 285
299 299 299 299 299 299 299 298 297 298 300 300 299 300 300 301 301 302 301 301 302 303 302 300 295 292 290 288 288 287 287 287 287 288 287 287 288 287 285 284 283 284 284 283
299 299 299 299 299 299 299 298 298 298 299 299 301 301 302 300 302 301 300 301 302 304 303 303 296 293 289 287 286 285 285 285 285 284 284 284 285 284 283 281 280 280 280 281
299 299 299 299 299 300 299 298 298 297 298 300 299 301 301 300 301 301 302 301 302 303 301 295 290 289 287 285 284 283 283 283 282 282 282 281 282 282 281 279 279 279 279 279
299 299 298 298 296 299 292 299 300 301 299 301 301 300 300 300 301 300 300 301 298 300 293 290 288 287 285 284 283 282 281 281 281 280 279 279 279 279 278 278 278 278 278 278
296 294 287 289 285 289 289 296 296 296 299 300 300 299 300 301 298 299 300 296 298 299 286 286 286 285 284 283 282 281 280 280 280 279 279 279 278 278 278 278 278 278 278 277
293 293 288 287 291 294 294 295 295 297 300 300 299 298 299 295 294 297 296 298 286 287 284 284 284 283 283 282 281 280 279 279 279 278 278 278 278 278 277 277 277 277 277 277
291 290 292 292 289 289 292 293 294 297 300 300 299 293 292 292 294 291 289 291 286 282 279 283 283 282 282 281 281 280 280 279 279 279 279 278 278 278 278 277 277 277 277 277
289 288 290 290 290 289 290 291 294 296 297 289 291 290 291 292 287 285 284 281 281 283 283 283 282 282 281 281 280 280 279 279 279 279 279 279 278 278 278 278 277 277 276 276

GFSNW_850_thetae_093.txt.gz
Theta_e
295 295 296 296 295 293 294 295 295 297 298 297 297 294 300 302 304 304 304 305 306 305 308 308 313 314 312 308 308 308 307 310 310 309 309 313 315 316 318 320 323 321 324 320
294 295 297 297 295 293 294 295 295 296 298 299 290 297 302 301 303 304 303 304 306 305 306 307 312 312 309 308 307 307 308 311 312 313 314 313 316 315 315 315 317 320 322 320
295 296 296 297 295 293 294 295 292 296 298 298 299 298 300 301 303 303 303 304 305 305 305 305 307 310 310 309 308 307 307 308 311 312 313 313 315 315 315 316 320 320 321 321
295 296 296 297 296 293 294 294 292 295 296 299 296 299 301 303 304 304 305 306 306 306 305 305 305 307 307 308 308 307 307 308 310 310 312 312 314 315 316 317 317 320 319 320
296 296 296 297 296 294 294 293 294 296 297 298 301 300 302 303 304 303 304 304 305 306 307 306 306 306 307 308 307 307 306 307 308 308 309 311 311 309 308 315 317 317 319 319
295 296 297 297 296 295 294 294 295 295 294 296 298 300 300 301 301 303 303 304 304 305 306 305 305 306 306 306 308 307 307 307 308 309 308 307 307 310 311 316 315 316 319 318
295 295 296 297 297 296 294 293 294 294 291 295 296 297 298 299 300 302 302 303 304 306 306 305 304 304 306 305 306 306 306 306 306 308 307 306 307 307 315 316 315 315 316 318
294 295 296 297 298 298 296 294 294 295 291 295 296 296 298 298 299 301 304 304 305 305 305 303 305 304 305 305 305 305 305 305 304 306 307 305 306 310 311 311 314 317 318 316
295 296 296 296 297 298 298 297 294 295 294 293 296 296 297 297 299 299 302 302 304 304 301 302 305 306 306 306 306 305 304 304 305 304 307 305 308 312 312 313 317 315 316 317
296 297 297 297 297 298 298 297 296 294 295 294 295 296 298 299 299 298 299 301 303 303 300 304 304 305 305 306 307 308 305 304 306 306 308 306 308 310 312 313 312 312 313 313
296 297 297 298 299 298 298 298 296 295 294 294 295 295 295 297 299 300 299 297 300 301 300 302 303 302 304 306 305 306 306 305 305 306 308 307 308 311 313 310 308 308 307 307
297 298 299 299 299 299 298 298 298 297 295 295 296 295 295 296 298 298 299 299 300 302 304 302 302 300 298 304 305 307 306 307 308 305 305 308 307 307 306 305 303 302 303 304
298 298 299 299 299 299 299 298 298 296 296 296 295 295 296 295 296 297 297 299 299 300 300 300 303 304 303 301 301 306 308 304 307 309 309 308 306 304 302 302 302 302 300 301
298 298 298 299 299 299 299 298 298 298 296 295 296 297 297 297 296 296 297 298 300 301 301 301 302 301 303 304 307 304 303 303 303 307 305 303 301 301 300 300 297 299 300 299
299 299 298 298 298 299 299 299 299 298 298 296 296 297 297 297 297 296 297 299 299 301 302 300 299 301 303 303 303 300 299 299 301 303 298 301 299 298 298 297 296 296 297 296
298 298 298 298 298 299 298 298 299 298 298 298 298 299 299 300 298 298 296 300 300 300 301 300 300 301 303 304 301 297 296 295 294 297 297 296 295 296 296 295 293 293 293 292
298 298 297 297 297 298 299 298 298 299 298 298 298 297 300 301 298 298 297 296 297 301 300 301 301 302 303 299 298 294 294 293 293 295 297 295 293 292 293 293 292 291 291 290
298 298 298 298 299 299 299 299 298 297 298 297 296 293 297 299 300 300 298 299 300 301 301 301 302 300 297 295 291 290 291 292 291 290 291 291 291 292 292 291 291 289 287 286
298 298 299 299 299 298 299 299 297 297 298 297 296 294 292 301 300 300 301 300 299 300 301 301 300 294 290 291 289 289 288 288 289 289 289 289 289 289 288 288 287 285 283 283
299 299 299 297 298 299 298 297 296 297 299 298 296 297 297 300 299 299 299 301 301 301 302 297 293 289 287 287 287 287 286 286 286 288 286 286 287 286 285 284 282 282 281 282
299 299 298 298 299 298 298 296 297 298 298 298 299 299 298 299 300 300 300 301 301 302 302 300 293 291 287 286 285 284 284 284 284 284 283 284 284 283 282 281 280 281 281 281
299 298 298 298 299 298 298 298 297 297 297 297 300 301 301 299 300 300 300 299 301 303 298 295 288 288 286 284 283 283 282 281 281 281 281 281 282 282 281 280 280 280 280 280
299 299 298 298 295 296 298 298 297 299 299 300 300 300 300 299 299 300 300 300 301 295 289 287 287 286 284 283 282 281 281 280 280 279 279 279 279 279 278 278 278 278 278 278
295 293 286 288 283 287 287 293 292 297 299 300 300 299 300 299 297 298 295 294 295 289 286 286 285 284 283 282 281 281 280 280 280 280 279 279 279 279 279 278 278 278 278 277
293 292 285 286 290 292 294 295 296 298 300 300 298 297 298 293 293 293 294 292 287 286 283 280 283 283 283 282 281 280 280 280 280 279 279 279 279 279 278 277 277 277 277 277
291 290 291 291 289 290 292 294 294 298 299 299 298 293 293 292 291 289 287 292 288 282 278 283 283 283 282 281 281 280 280 280 280 279 279 278 278 278 278 277 277 277 277 277
289 287 288 289 289 289 290 292 295 297 296 290 291 290 293 289 286 284 283 281 280 282 283 283 283 282 281 280 280 280 280 279 279 279 278 278 278 278 277 277 277 276 276 275

GFSNW_850_thetae_096.txt.gz
Theta_e
295 295 295 296 297 295 293 294 294 296 296 297 296 291 298 299 300 302 303 304 307 307 306 312 313 313 311 308 308 308 307 309 310 310 309 312 313 315 315 320 319 320 322 319
295 295 295 296 297 295 293 294 295 295 297 296 297 296 297 300 301 300 303 303 305 304 306 309 310 310 308 308 307 308 308 311 312 314 313 311 315 315 315 315 315 315 317 316
294 295 296 296 297 296 293 294 292 294 297 297 298 298 297 298 301 302 303 303 303 305 306 306 307 309 309 308 307 307 307 309 309 311 311 311 313 314 314 317 317 317 319 317
294 295 296 296 298 296 293 293 291 294 293 297 296 298 299 300 301 304 303 304 304 306 307 306 307 308 306 307 307 306 306 307 309 309 309 311 311 312 313 315 315 317 315 317
294 295 296 296 297 296 293 293 292 294 296 296 296 298 299 301 301 304 304 304 304 306 307 306 307 306 306 307 306 306 305 306 307 308 307 310 310 308 307 307 309 311 316 317
294 295 296 297 297 296 294 293 294 294 293 294 296 298 298 298 300 301 302 303 304 303 305 305 305 305 306 305 306 306 306 306 307 308 307 306 304 306 313 314 315 315 316 316
293 295 295 296 297 297 295 294 293 293 290 294 296 295 297 297 298 301 302 304 303 305 305 304 304 303 304 305 305 305 306 306 306 307 306 304 302 304 312 313 315 315 314 314
294 295 295 296 297 298 297 295 294 294 292 294 295 295 296 296 296 300 301 303 303 304 304 302 303 303 304 304 304 305 304 304 305 306 307 304 305 309 311 312 313 316 317 315
294 294 294 295 296 297 297 297 295 294 294 291 295 295 295 295 298 298 300 301 302 303 300 301 304 304 305 306 305 304 303 303 305 304 306 303 303 310 309 311 314 311 316 315
294 294 295 296 296 297 297 297 296 295 294 294 294 296 297 299 298 298 298 300 302 302 298 302 304 305 304 305 306 307 305 304 306 306 308 306 306 307 309 312 311 308 311 313
293 295 296 297 297 298 298 298 297 296 294 294 294 294 294 296 297 298 299 296 300 300 301 302 302 302 303 305 304 306 305 306 304 306 307 306 307 308 309 307 303 304 305 305
293 294 295 297 297 298 299 298 298 297 296 295 295 295 295 295 298 298 297 299 300 299 303 302 303 303 300 303 306 305 304 307 309 306 305 306 305 305 303 301 299 299 300 300
295 296 297 298 299 299 299 298 298 296 295 296 296 297 297 296 295 296 296 298 299 298 299 299 303 304 303 301 301 306 305 302 306 305 307 305 303 300 299 299 298 298 298 297
297 297 298 299 299 299 299 298 298 297 296 295 296 297 297 297 296 295 296 297 299 299 300 300 301 300 301 303 304 304 301 300 300 305 301 300 298 298 296 296 295 296 295 294
297 298 298 299 299 299 299 299 298 298 298 295 296 298 299 297 297 296 296 297 297 299 301 299 298 298 302 302 301 298 298 297 298 301 296 298 296 295 295 294 293 293 293 291
297 297 298 298 298 298 299 298 298 298 298 298 297 298 298 300 297 296 295 297 298 299 301 300 300 300 302 303 295 297 294 294 293 294 295 294 293 293 292 292 291 290 291 290
297 297 298 298 298 298 299 298 298 297 298 297 297 296 299 300 297 296 296 296 299 299 300 300 300 301 302 298 293 293 293 292 292 293 295 295 291 289 290 290 289 288 288 287
295 296 297 297 298 298 298 298 298 297 297 298 297 293 297 298 298 297 297 296 296 297 300 301 300 299 297 295 291 290 290 291 290 289 290 291 290 289 288 288 287 286 284 283
296 297 297 298 297 298 299 298 298 297 298 297 296 292 291 299 299 299 300 299 295 298 299 299 300 295 291 291 290 288 287 287 287 288 288 288 287 286 286 285 284 283 281 281
297 297 298 296 298 298 299 297 297 297 297 297 295 295 298 299 299 299 298 298 293 300 298 296 294 286 287 287 287 286 285 285 286 287 286 285 286 283 283 281 280 279 280 281
298 298 298 297 298 299 298 296 297 297 298 297 297 296 297 299 297 299 298 298 299 301 300 300 293 290 287 285 285 284 284 284 283 283 282 282 282 281 281 280 279 280 280 280
299 299 297 298 298 298 298 298 297 297 297 296 298 298 299 298 300 300 298 299 299 301 296 294 287 287 285 284 284 283 283 282 282 281 281 281 280 281 280 280 279 279 279 278
298 298 298 298 295 297 294 297 297 291 297 297 300 300 299 298 299 300 299 299 299 294 291 289 286 286 284 283 282 282 281 281 282 282 282 281 281 280 280 279 279 279 279 278
296 294 292 293 287 289 288 291 293 296 299 300 299 299 299 299 298 298 298 294 295 293 287 286 284 284 283 283 282 281 281 281 280 280 280 280 280 280 280 279 279 279 279 279
293 291 287 288 289 291 294 295 297 298 299 299 298 296 297 291 292 289 292 293 290 288 286 280 284 284 283 282 281 281 280 280 279 279 279 278 278 278 278 278 277 277 277 277
291 289 290 290 291 291 293 295 295 298 299 299 297 292 291 290 290 291 290 294 289 282 276 283 283 283 282 281 281 280 280 279 279 279 279 278 278 278 278 278 277 276 276 276
289 286 288 289 289 289 290 292 294 297 297 293 291 291 293 290 287 286 282 281 278 281 283 283 283 282 282 281 280 280 280 280 279 279 279 278 278 278 277 277 277 276 276 275

GFSNW_850_thetae_099.txt.gz
Theta_e
293 295 295 296 297 296 295 293 292 294 295 295 294 296 296 297 297 298 299 303 305 305 307 312 313 311 310 308 308 309 310 310 312 312 311 312 313 314 314 316 319 316 319 317
292 295 295 296 297 297 294 293 294 294 296 295 296 297 297 297 297 299 301 302 302 301 305 309 312 311 309 309 308 310 311 312 316 316 313 312 314 315 314 314 316 316 317 317
293 294 295 296 297 296 294 293 291 293 296 296 296 297 298 298 299 300 303 303 302 305 308 307 309 309 309 309 309 308 309 310 310 313 312 312 313 313 314 315 316 316 316 316
293 294 296 296 297 296 294 292 291 293 292 295 296 297 298 300 302 301 302 304 305 306 307 307 307 307 308 308 307 307 308 309 309 309 309 311 311 311 310 310 312 314 313 313
292 293 295 296 297 296 294 293 292 294 294 294 295 297 297 297 298 301 304 303 304 305 307 307 307 306 307 308 308 307 307 308 308 308 308 309 308 308 306 307 310 311 311 311
293 294 296 296 297 296 294 293 293 293 293 294 295 296 296 297 298 298 301 303 304 305 305 304 304 304 304 306 307 307 307 308 307 305 307 307 305 305 306 312 314 315 316 315
293 293 296 296 297 296 296 294 293 293 292 294 295 295 295 296 298 297 300 303 303 304 303 304 303 303 303 304 306 305 307 307 307 307 307 304 304 305 307 309 311 314 316 316
292 293 296 295 296 297 298 296 295 293 292 294 295 295 295 296 295 299 300 302 301 302 303 304 303 304 304 305 305 305 306 306 307 307 307 305 306 310 309 310 308 312 316 314
292 293 295 294 295 297 297 297 294 294 294 293 294 295 295 296 297 299 299 300 301 302 301 303 304 305 305 305 306 304 304 305 307 307 306 306 306 307 308 309 311 308 310 314
292 293 294 294 295 296 297 297 297 295 294 294 294 296 296 297 297 298 298 299 300 301 301 304 305 305 304 305 306 307 306 306 307 307 307 307 307 307 307 305 308 306 305 307
291 292 294 294 296 297 297 298 296 297 295 295 295 295 294 295 296 298 298 298 300 302 303 303 304 304 304 305 305 307 306 307 307 306 307 307 306 307 309 305 301 301 300 299
291 291 293 295 296 297 298 297 298 297 295 296 296 296 296 296 295 297 296 298 298 299 300 300 301 303 303 303 306 305 308 307 307 307 308 304 303 301 299 299 297 297 297 297
291 292 293 295 295 297 298 298 298 297 295 296 296 297 297 296 296 296 296 297 298 298 299 299 301 303 303 303 304 306 304 301 304 304 302 299 298 297 296 295 293 294 294 294
292 293 295 296 297 298 299 299 298 297 296 295 297 297 297 297 297 296 295 296 299 299 299 300 301 300 301 303 304 303 300 299 298 302 299 298 295 295 294 293 292 292 292 292
293 294 296 297 298 299 299 299 299 298 297 295 296 297 299 298 297 296 296 295 296 296 300 301 301 299 301 303 301 299 297 296 298 299 295 296 293 293 292 291 290 291 289 288
294 294 297 298 299 298 299 297 298 298 297 297 296 298 298 299 297 296 295 296 296 298 300 300 300 299 301 303 300 296 295 293 292 294 294 292 291 291 290 289 288 288 288 286
294 295 296 298 298 299 299 298 298 299 298 297 297 297 298 298 296 295 294 295 297 299 299 298 300 300 300 300 299 294 293 292 291 292 293 292 290 287 287 287 286 286 285 284
294 296 297 298 298 298 299 298 298 297 297 298 298 295 297 297 297 296 296 296 297 298 298 299 300 299 298 298 292 290 290 290 289 289 290 289 287 286 286 285 285 284 283 281
294 295 296 297 297 298 298 298 297 298 297 297 296 295 296 298 297 297 297 297 296 297 299 299 300 298 298 292 290 288 287 287 286 287 287 287 286 284 283 282 282 282 281 280
294 295 296 297 297 298 298 297 296 297 297 297 295 294 299 298 298 298 297 297 297 298 298 297 298 293 288 287 287 286 285 285 286 288 286 286 285 283 281 280 279 279 278 280
295 296 297 297 297 297 297 296 297 296 296 296 295 295 298 298 299 299 297 298 299 299 299 299 296 294 288 285 285 285 284 283 283 283 282 282 282 281 280 279 278 279 279 279
297 298 297 297 298 297 297 297 297 296 298 297 296 295 298 298 299 298 298 299 298 299 298 298 294 288 285 284 284 283 283 282 281 281 280 280 279 280 280 280 279 279 278 278
298 298 298 296 295 298 298 296 296 296 295 296 298 298 297 297 297 299 299 298 300 295 297 297 289 285 284 283 283 282 282 281 281 281 280 280 280 279 279 279 278 278 278 278
298 296 294 296 294 293 290 294 293 295 297 297 298 298 298 297 297 299 301 298 297 298 296 294 287 285 283 283 283 282 282 281 281 281 280 280 279 279 278 278 277 277 277 277
293 291 290 287 288 291 293 295 297 297 298 299 298 297 297 296 297 294 294 296 298 296 295 285 284 284 283 282 282 281 281 281 281 280 280 280 279 279 279 279 278 278 277 277
290 289 288 289 292 292 294 296 296 298 298 299 298 295 296 295 294 295 297 297 297 291 283 282 284 283 282 282 281 281 281 281 281 280 280 280 279 279 279 278 278 278 277 276
288 286 287 289 290 290 291 294 295 297 298 293 293 293 295 291 290 291 288 292 286 281 282 284 284 283 282 281 281 281 281 280 280 279 279 278 278 278 277 277 277 276 276 275

GFSNW_850_thetae_102.txt.gz
Theta_e
292 295 295 295 297 297 296 295 299 295 296 300 299 300 299 298 299 298 301 301 302 303 304 304 309 313 312 310 310 311 312 315 316 315 313 314 315 315 316 319 318 318 319 319
292 295 295 296 297 297 296 297 296 296 297 300 300 300 300 300 300 300 302 302 303 303 304 307 313 310 310 309 311 312 313 314 316 316 315 315 315 315 316 316 317 319 319 319
291 294 295 296 296 296 295 296 298 296 298 297 299 299 300 300 300 302 302 304 303 305 308 308 311 312 310 309 310 309 310 312 314 315 316 315 316 315 315 316 317 316 318 317
290 294 295 296 297 296 295 295 297 295 298 298 299 299 300 299 300 300 301 305 306 305 308 308 309 309 309 308 308 309 310 310 310 310 311 311 311 311 311 310 311 314 313 315
290 293 295 296 297 296 295 295 297 296 296 296 298 298 299 298 298 300 302 305 305 305 306 306 307 307 308 308 308 309 308 309 307 307 309 310 309 308 307 307 311 314 315 316
290 293 295 296 297 296 296 294 294 296 295 296 298 299 297 297 298 300 300 303 305 306 304 304 305 305 305 306 308 308 308 308 306 308 306 306 306 307 308 310 311 314 316 317
291 293 295 296 297 297 296 295 296 297 298 297 297 297 296 297 298 299 299 303 303 303 303 305 305 305 305 306 308 308 307 307 307 307 307 305 306 309 309 309 312 314 315 312
291 293 294 296 296 297 296 296 296 297 299 297 297 297 298 297 298 300 301 301 301 302 304 306 303 306 306 308 308 308 308 307 307 307 306 307 311 310 310 310 311 309 310 311
291 293 294 296 295 297 297 296 295 297 298 298 296 297 298 300 300 301 301 301 302 303 305 306 305 306 305 305 307 307 307 308 308 308 306 307 310 309 308 310 312 307 306 306
291 292 293 295 295 296 296 297 297 296 298 298 296 298 298 298 299 301 301 300 302 303 306 307 306 305 306 306 306 307 308 309 309 308 309 309 308 308 308 310 309 304 302 300
292 291 293 294 294 295 297 297 297 296 296 298 296 296 297 297 298 300 299 303 302 303 304 305 305 306 307 307 308 308 308 309 309 308 309 311 302 308 309 305 299 299 299 299
292 291 292 293 294 296 297 297 296 297 296 298 296 296 297 297 297 297 299 299 301 301 302 302 303 305 305 305 307 307 309 306 308 305 305 299 297 297 296 296 295 295 296 296
291 290 291 293 294 296 297 298 298 296 296 296 297 299 298 297 297 297 298 299 300 300 300 300 301 305 305 305 306 306 305 303 305 306 300 298 296 295 294 293 293 292 292 293
291 290 292 292 293 294 296 298 298 298 297 298 299 297 298 298 296 296 297 298 300 300 300 301 302 303 303 303 304 305 303 302 300 304 300 298 295 294 293 292 292 292 291 290
291 291 293 294 296 297 297 298 299 298 297 300 300 299 298 299 297 296 297 296 296 298 300 302 303 302 303 304 304 303 299 298 301 301 296 297 295 292 291 290 289 289 289 289
290 292 294 295 298 298 299 297 299 299 298 298 301 299 299 298 298 297 297 297 298 298 300 301 301 301 302 304 304 297 296 294 294 296 293 292 291 290 289 289 288 287 287 286
291 293 295 296 298 298 299 298 299 298 297 298 300 301 298 297 297 297 297 297 299 300 301 300 301 301 301 303 303 296 294 293 292 292 292 292 291 290 289 288 287 286 285 284
291 293 294 297 297 298 298 298 298 298 297 298 301 301 299 297 299 299 298 298 298 299 300 299 301 301 300 302 295 294 293 291 291 290 291 289 287 287 286 287 286 286 285 283
292 294 296 297 297 298 298 299 297 297 297 298 298 301 302 298 299 297 298 299 300 299 300 300 301 301 302 298 295 293 291 291 289 289 288 287 286 286 285 284 285 284 283 282
291 294 295 296 297 298 298 297 297 297 297 297 299 298 300 299 299 300 299 299 301 300 299 299 301 301 291 291 291 289 288 287 288 289 289 288 286 284 283 282 282 281 280 280
294 295 296 297 298 298 297 296 297 297 298 297 298 298 300 299 300 300 299 300 300 300 301 300 301 301 291 288 287 286 285 285 285 286 285 284 284 283 282 281 280 279 278 278
294 296 297 297 297 297 299 299 299 298 300 298 297 297 300 300 300 301 299 300 299 300 300 301 302 293 288 287 286 285 284 284 284 283 283 282 281 281 280 279 278 279 279 279
294 296 297 296 297 300 300 300 300 301 299 297 297 298 298 298 299 299 300 300 300 299 302 303 297 289 287 286 284 283 282 282 281 281 280 280 279 279 278 278 278 278 278 278
295 296 296 299 298 301 301 301 301 299 299 298 298 298 299 298 299 301 303 301 300 302 302 303 292 288 286 284 283 282 281 281 280 280 280 280 279 279 279 279 278 278 278 278
294 295 300 297 295 294 295 296 297 298 298 298 298 299 300 299 301 300 300 300 302 302 303 294 289 286 284 282 281 281 281 281 280 280 280 279 279 279 278 278 278 277 277 275
291 291 293 292 295 295 296 296 297 298 298 299 300 301 301 301 301 300 301 302 303 300 292 288 286 284 282 282 282 282 281 281 280 280 279 279 279 279 279 278 277 276 276 276
289 290 288 291 296 295 294 295 296 297 299 303 300 301 301 297 299 300 298 301 293 287 287 286 285 283 283 282 281 281 281 281 280 280 280 279 279 278 278 277 277 276 276 275

GFSNW_850_thetae_105.txt.gz
Theta_e
292 294 296 295 297 297 298 300 302 299 300 304 302 302 302 301 302 302 303 303 304 305 307 307 308 312 308 310 310 310 312 313 316 317 314 315 315 316 317 319 320 319 322 323
292 294 295 295 297 297 299 300 299 299 302 303 303 302 302 302 303 303 304 305 305 306 306 307 306 313 312 310 311 312 312 314 316 319 316 316 316 316 317 319 319 321 321 323
293 293 295 296 297 296 298 299 302 300 300 300 302 302 302 303 303 304 303 305 305 307 308 305 308 313 311 311 311 310 312 314 315 316 315 316 317 317 316 317 319 318 318 317
292 293 295 296 297 296 298 300 300 298 302 302 301 302 302 302 302 302 303 307 306 307 307 306 308 308 311 310 310 311 313 314 315 315 315 316 315 316 315 316 314 314 315 318
292 293 294 296 297 296 299 296 301 299 299 299 301 301 302 301 301 303 303 305 305 305 305 306 307 308 309 310 310 310 311 309 310 311 312 313 313 311 309 308 310 314 314 319
291 292 294 296 297 297 299 298 298 299 298 300 301 301 300 300 301 302 302 304 305 305 305 305 306 307 307 308 308 309 309 309 310 309 308 308 308 309 310 311 314 316 319 316
291 292 294 296 297 297 298 299 299 300 302 300 300 299 299 300 300 301 302 303 304 303 305 306 306 307 308 308 308 309 308 308 308 308 308 308 310 311 310 314 312 311 311 310
292 292 294 296 297 296 298 298 298 299 301 300 299 299 300 301 301 302 302 302 302 304 307 307 306 308 307 307 308 308 309 309 309 308 309 309 312 310 310 311 311 309 309 308
292 292 294 296 296 297 297 298 297 299 300 301 298 300 299 301 302 303 302 302 303 305 308 308 306 307 307 307 308 308 308 309 309 309 308 312 311 310 309 310 312 306 306 305
291 292 293 295 296 296 297 297 297 298 300 300 299 301 300 299 301 302 303 302 304 304 308 309 307 307 306 307 307 308 309 310 311 309 310 311 304 305 307 314 307 302 302 302
292 292 293 295 295 295 296 297 296 297 299 299 299 300 300 300 301 302 301 304 304 304 306 306 306 308 307 309 308 309 310 311 311 311 310 313 299 306 308 302 298 299 299 300
292 292 292 293 295 294 296 297 296 297 298 299 299 299 299 299 299 300 300 301 303 302 305 304 305 307 308 307 311 308 310 307 308 305 304 299 298 297 296 299 298 297 298 298
291 292 291 292 294 294 295 298 297 297 297 297 299 301 301 300 300 299 300 301 302 303 302 302 304 307 306 307 307 307 306 305 306 304 300 299 298 297 296 296 296 295 295 296
291 292 291 292 293 294 296 297 297 298 297 300 301 299 300 300 299 300 299 300 301 301 301 302 304 305 304 305 306 306 304 304 302 302 299 298 296 295 295 294 294 294 294 293
291 291 290 292 293 294 296 297 297 298 298 301 302 301 301 300 299 299 299 299 299 299 301 303 305 304 304 305 305 304 301 301 303 303 298 298 295 294 293 293 292 292 292 292
291 291 291 292 293 294 296 298 298 297 298 298 303 301 301 300 300 300 300 299 299 299 300 302 303 303 303 305 305 300 298 296 296 297 295 294 293 292 292 291 290 290 289 289
291 290 292 294 295 297 298 299 300 299 298 297 300 302 300 300 300 300 300 299 299 300 301 302 302 303 302 304 305 298 296 294 294 295 295 294 294 292 291 290 290 289 288 287
291 291 293 295 297 297 297 299 299 298 297 298 301 302 301 299 300 300 300 300 299 300 301 301 302 302 302 302 299 297 295 294 293 293 293 291 290 290 289 289 289 289 287 286
290 292 294 295 296 297 298 298 298 298 298 300 299 302 303 300 301 300 300 300 302 301 302 301 302 303 304 301 299 297 295 295 294 292 291 289 289 288 287 287 287 287 285 284
291 293 295 296 297 298 298 297 298 297 298 297 300 301 303 300 299 300 300 301 302 303 301 301 301 303 297 297 297 294 292 291 292 293 292 290 289 287 286 285 284 284 283 282
291 293 295 297 297 298 298 297 298 297 298 298 299 301 302 301 302 302 301 302 302 301 303 301 302 302 295 293 292 290 290 289 290 290 289 288 288 287 285 283 282 282 280 279
292 295 296 297 298 297 300 301 300 300 300 300 299 301 301 301 301 302 301 302 301 301 302 302 303 295 292 291 289 289 288 288 287 286 285 285 284 284 283 282 280 278 278 279
295 296 296 296 297 301 301 301 301 302 302 300 299 302 301 300 301 301 301 300 302 302 302 303 300 292 290 289 288 287 286 285 285 284 283 283 282 281 281 279 279 280 280 279
294 295 300 299 300 301 302 302 304 303 301 300 299 299 300 299 300 304 302 303 302 303 303 304 296 290 289 288 286 285 283 283 283 282 281 280 281 281 280 280 279 279 278 278
294 295 301 300 300 299 300 300 302 301 301 300 300 299 300 300 301 300 302 302 303 303 304 299 292 289 287 285 284 281 281 281 280 280 281 280 280 280 279 279 278 277 277 276
293 292 296 296 299 297 297 299 299 300 301 300 301 302 301 302 303 301 302 303 305 304 298 292 289 287 286 284 282 281 280 280 280 280 280 280 279 278 278 278 278 277 277 276
292 294 292 294 299 299 297 298 298 300 301 305 302 303 302 302 303 302 304 305 299 294 291 289 288 286 283 281 281 281 281 280 279 279 278 279 278 278 277 277 276 276 276 276

GFSNW_850_thetae_108.txt.gz
Theta_e
291 293 295 295 297 297 299 302 305 301 299 306 306 303 303 303 304 305 306 306 307 307 307 307 307 309 310 308 312 313 313 315 316 316 315 314 316 318 318 321 318 320 323 323
292 293 295 295 296 297 301 303 302 301 304 306 305 303 304 304 305 305 305 306 306 306 307 307 307 308 312 312 313 314 313 314 317 317 315 315 316 316 317 318 319 321 323 323
292 292 295 295 297 296 301 301 305 302 302 302 303 303 304 304 304 305 304 306 307 308 308 306 308 310 312 311 312 312 314 314 315 319 317 317 317 318 317 316 319 318 319 321
293 292 295 296 297 296 301 302 303 301 304 304 302 303 304 303 303 303 304 306 306 306 306 307 309 309 310 311 311 312 311 317 314 315 317 315 316 316 316 316 314 315 318 317
293 291 295 296 297 297 301 295 303 300 301 300 302 303 302 302 302 304 304 305 305 305 305 306 308 308 309 310 311 311 310 312 312 313 316 315 315 310 310 315 317 317 319 316
293 291 294 296 297 297 301 300 299 301 301 301 302 303 301 301 302 302 303 304 305 305 305 306 308 308 308 308 311 310 310 311 311 309 309 310 311 311 314 312 312 312 315 312
293 291 294 296 297 299 300 300 301 301 303 301 301 301 301 302 302 302 303 303 304 303 305 308 307 308 308 308 308 309 309 308 310 308 308 315 312 313 311 310 309 310 309 308
292 291 294 296 296 298 298 299 300 301 303 302 301 301 301 302 303 304 304 303 303 305 307 308 308 308 309 307 307 308 309 310 311 311 310 312 312 310 309 312 308 306 307 306
292 291 293 296 296 296 298 299 298 300 301 303 300 301 302 302 303 304 303 303 305 305 309 311 308 307 307 308 310 309 309 311 313 312 310 314 307 304 306 309 308 303 304 304
292 291 293 295 296 297 297 298 297 299 300 301 300 301 301 301 301 303 303 302 304 304 309 310 308 309 308 309 309 309 311 312 313 312 313 309 302 304 306 311 305 301 301 301
292 292 293 294 296 296 297 298 297 299 300 300 301 301 300 301 301 302 301 304 303 304 307 305 306 307 307 310 309 309 308 311 310 311 311 309 299 303 304 300 299 299 299 299
292 292 292 294 295 295 296 298 298 297 297 300 300 299 301 301 301 301 301 301 303 304 305 304 304 307 309 307 312 307 308 307 306 304 303 300 298 298 298 298 298 297 298 298
292 292 292 292 294 295 295 297 298 297 296 298 301 303 302 302 302 301 301 303 303 303 303 304 305 306 306 307 308 308 307 305 306 304 301 299 298 297 296 296 296 296 295 295
292 291 292 291 293 294 295 296 297 298 298 299 302 301 302 301 301 301 301 301 301 301 302 303 304 306 305 306 306 307 304 304 303 301 300 298 296 296 295 295 295 295 295 293
292 292 292 291 291 293 294 296 297 296 297 300 302 302 302 302 301 301 301 301 300 300 301 303 304 304 304 305 306 305 302 301 303 301 299 298 296 294 294 294 293 292 292 292
291 291 292 291 292 293 295 296 297 297 297 298 302 303 303 302 302 301 301 301 300 300 301 302 303 304 304 305 306 300 298 297 298 297 296 295 294 293 293 292 291 291 290 289
291 291 291 291 292 293 296 298 299 298 297 298 300 302 302 301 301 301 301 300 300 301 302 302 302 303 303 305 304 299 296 295 295 295 295 295 295 293 292 292 291 290 289 288
291 291 291 292 294 294 295 297 299 298 297 298 301 303 302 300 300 301 300 300 300 301 302 302 302 303 303 303 301 298 296 295 294 294 293 293 292 291 291 291 291 290 288 286
291 291 292 293 294 296 298 297 297 298 299 300 300 302 304 301 302 302 301 301 302 301 303 302 302 303 303 303 300 298 296 296 295 293 292 291 290 289 289 288 288 287 285 284
291 292 294 295 296 297 298 297 298 298 298 298 301 301 303 301 301 301 300 301 302 303 302 302 303 303 300 300 299 297 296 294 295 294 293 292 290 288 286 285 285 284 283 282
291 293 295 297 297 297 298 297 298 298 299 298 300 302 303 301 303 303 301 303 302 302 303 303 303 302 297 296 294 293 292 292 292 291 290 290 289 287 285 284 283 282 280 281
293 295 296 297 298 298 300 301 300 300 301 301 300 302 302 303 302 302 302 302 302 301 303 303 303 297 295 294 292 291 290 290 289 288 287 286 286 285 284 282 281 280 281 280
293 295 296 296 297 301 300 301 301 303 303 301 301 304 303 302 302 301 301 300 302 302 303 303 300 294 293 291 290 289 288 287 286 285 284 284 283 282 281 280 279 281 280 280
294 296 299 299 299 300 302 303 304 302 303 302 302 301 301 301 301 301 300 303 303 302 302 304 297 293 291 290 288 286 285 285 284 283 283 283 282 282 281 281 281 280 280 279
294 296 299 300 301 301 302 303 302 303 302 301 301 300 300 301 300 299 301 302 302 303 304 299 293 290 288 287 285 284 283 283 282 282 282 282 281 281 281 280 279 279 278 278
293 294 296 298 300 298 299 301 302 303 302 301 301 301 301 301 301 301 301 303 304 305 297 292 290 288 287 285 283 282 282 281 282 282 281 281 280 280 280 279 279 278 277 277
294 295 294 294 296 299 298 298 301 302 302 303 302 303 301 302 303 301 304 305 300 294 292 290 288 287 285 283 282 282 281 281 281 281 280 280 280 279 279 279 278 277 277 276

GFSNW_850_thetae_111.txt.gz
Theta_e
293 292 294 295 296 297 299 303 301 300 298 304 305 299 302 303 305 305 305 305 305 306 306 305 304 307 307 309 312 312 311 310 317 316 315 315 315 317 316 319 320 319 322 317
292 292 294 295 297 300 302 303 303 297 304 298 297 303 304 304 305 305 304 306 305 305 304 304 303 307 307 309 312 313 312 314 316 315 315 315 316 315 316 318 317 321 321 317
292 292 295 295 296 297 301 302 299 302 302 301 303 302 304 304 303 304 304 305 304 304 301 304 306 308 309 310 311 311 313 314 316 317 317 316 317 317 316 317 318 319 317 313
292 292 295 295 297 298 301 302 299 301 297 301 301 302 303 303 303 303 304 303 304 303 301 304 304 307 308 309 310 310 311 314 312 313 314 314 313 314 314 315 316 317 313 310
294 292 294 296 297 298 301 297 303 299 300 301 300 303 303 301 301 302 303 304 303 303 303 305 306 307 308 308 309 310 310 313 310 312 312 314 314 312 312 313 315 315 312 308
295 292 293 296 296 298 302 301 300 301 302 300 300 300 301 301 302 302 302 303 303 303 303 304 305 306 308 308 311 309 309 310 311 311 311 313 314 311 310 309 309 310 310 309
294 293 292 295 296 298 300 300 301 302 299 300 300 301 301 301 302 303 303 303 302 303 304 306 308 308 308 308 310 309 309 310 310 309 309 316 309 307 306 306 306 306 306 304
294 292 292 295 296 298 299 299 300 301 298 301 301 300 301 301 302 302 304 302 303 303 305 307 307 307 307 308 309 309 310 310 311 310 313 313 308 304 304 308 305 303 303 302
293 291 292 295 296 298 298 298 299 300 300 300 301 301 301 300 299 300 302 302 304 303 305 306 308 307 308 309 309 309 310 309 312 310 312 312 304 301 302 305 303 301 301 299
293 292 292 295 296 297 298 298 298 299 300 302 301 300 300 301 301 300 302 301 303 302 301 306 305 308 308 310 309 308 307 307 308 310 310 306 299 300 302 307 302 300 299 298
293 292 291 294 296 296 297 298 297 298 299 299 301 301 301 301 301 297 301 299 301 300 302 303 304 306 307 309 308 308 306 308 305 306 307 304 298 300 302 301 298 298 298 298
293 292 292 294 295 296 296 298 298 297 297 299 301 298 298 301 301 301 301 302 303 302 299 300 302 306 304 306 307 306 305 306 303 302 301 298 298 297 297 296 296 296 296 296
293 292 292 293 295 296 296 298 297 297 297 298 301 303 302 302 302 302 301 302 302 302 302 302 303 305 304 304 305 306 305 305 302 302 300 298 297 296 295 296 296 295 294 294
293 292 292 292 294 295 295 296 297 297 297 298 301 301 302 302 300 301 301 301 301 300 300 302 302 302 304 304 305 302 303 302 302 300 298 297 296 295 295 294 293 293 292 291
293 292 292 292 292 294 294 296 297 296 298 299 299 300 302 302 301 301 301 301 300 300 300 299 300 303 302 303 304 301 299 299 301 299 299 297 295 294 294 292 291 291 290 289
293 292 291 291 291 293 294 295 296 296 297 297 297 301 303 302 302 301 301 301 301 300 301 300 302 303 302 300 299 298 296 296 298 297 296 296 294 293 293 291 290 289 288 288
293 292 292 291 292 293 295 297 298 297 297 297 298 301 302 301 301 301 301 300 300 300 301 301 301 303 303 295 296 297 296 295 295 294 294 294 294 293 292 292 290 288 287 286
292 291 291 291 293 293 294 298 298 298 298 297 299 297 301 300 300 300 300 300 300 300 301 302 301 302 303 299 299 297 295 294 294 294 294 293 292 291 290 290 289 287 286 284
292 291 291 291 293 293 294 295 296 297 298 298 298 299 294 301 301 301 300 300 300 300 299 301 300 297 297 299 298 296 296 295 294 293 292 291 289 289 288 288 287 286 284 283
291 291 293 294 294 296 298 297 297 297 299 298 299 299 297 301 301 300 299 300 297 297 299 302 296 295 300 300 298 296 296 295 294 293 292 290 289 287 286 285 284 284 283 282
291 292 294 296 296 297 297 296 298 297 298 297 298 300 298 301 295 298 300 295 296 297 298 296 295 298 296 295 294 293 293 292 292 292 291 291 289 287 284 283 283 282 282 282
292 294 296 297 297 297 298 298 298 297 297 299 299 300 302 302 302 301 301 297 295 298 301 294 293 296 294 292 291 291 290 289 289 289 288 287 286 285 284 283 282 282 281 281
293 295 296 296 296 299 297 299 299 294 301 300 300 300 302 302 302 300 299 298 293 301 294 297 295 295 293 291 290 289 288 288 287 286 285 285 285 284 283 283 282 281 281 281
293 294 296 295 296 293 295 296 297 302 302 301 302 301 301 301 298 297 299 298 299 300 296 297 294 292 291 289 288 288 286 286 285 284 284 284 283 283 282 282 281 281 280 280
293 295 297 293 299 299 299 302 302 302 301 302 300 299 299 298 299 298 298 300 298 296 298 297 293 291 290 288 287 287 286 285 284 284 283 283 282 282 282 281 281 280 279 279
293 293 295 297 299 298 299 301 302 303 301 300 300 297 298 298 298 298 299 298 296 297 294 292 291 289 289 288 287 286 285 284 284 283 283 283 282 282 281 280 279 279 278 278
293 293 294 294 295 298 298 299 301 302 300 297 298 295 298 296 297 300 296 293 297 293 291 290 290 289 288 287 286 284 284 284 283 283 282 282 281 280 280 279 279 278 278 278

GFSNW_850_thetae_117.txt.gz
Theta_e
296 295 293 294 296 296 299 302 301 302 297 301 298 298 301 302 303 303 303 303 304 301 301 304 303 305 306 307 307 310 311 311 311 312 311 313 313 312 311 309 313 317 312 308
296 296 294 295 296 297 301 302 301 299 303 299 296 300 303 303 303 303 303 303 303 301 297 300 299 303 305 306 307 309 311 313 312 313 314 313 314 314 314 313 314 315 314 309
296 296 294 295 296 301 303 302 298 300 303 300 299 301 302 302 302 302 303 302 300 298 295 299 300 302 305 305 307 309 311 312 312 313 313 313 315 314 314 313 312 310 308 305
295 295 295 296 297 302 302 301 298 300 297 299 298 300 302 300 300 301 301 300 301 299 295 297 299 301 304 304 307 306 309 311 309 308 309 309 311 316 313 312 311 309 305 302
293 294 295 296 299 301 300 301 300 299 299 301 299 300 301 299 299 299 299 301 301 301 301 300 300 301 304 304 305 306 307 311 309 309 307 305 306 306 308 307 305 304 302 300
292 294 295 296 297 301 300 300 299 300 298 297 297 298 300 299 300 301 302 301 300 300 300 301 301 301 302 303 304 306 307 308 311 312 310 310 305 304 305 304 305 307 304 299
292 294 295 296 298 300 300 300 301 300 297 298 297 301 299 300 301 301 301 301 301 302 301 304 305 304 303 304 306 304 308 309 309 311 311 307 304 301 303 302 302 302 299 297
292 292 295 296 297 301 300 300 301 301 297 299 300 300 300 299 299 299 301 300 301 301 303 304 305 304 305 307 306 305 306 308 311 311 308 306 303 300 301 303 301 300 300 298
294 291 294 296 298 300 300 300 301 301 299 299 300 299 299 298 298 298 300 300 301 302 298 300 305 307 307 307 306 305 305 305 310 310 308 307 302 298 299 300 301 299 297 296
294 292 293 296 297 300 299 299 300 299 300 300 300 299 299 300 298 297 297 299 301 301 295 301 303 305 307 305 306 307 305 305 305 307 306 303 297 298 301 304 300 298 295 294
294 291 293 296 296 297 298 298 297 298 300 300 300 300 300 300 299 294 298 296 298 297 297 300 300 302 305 307 305 306 303 304 303 304 302 303 296 298 301 298 296 297 295 293
293 291 294 296 296 297 297 297 297 297 298 298 299 298 298 299 300 299 300 301 300 300 295 300 298 300 301 303 303 303 302 301 301 300 299 296 296 296 296 295 293 294 295 293
292 291 294 296 296 297 297 297 296 297 297 299 302 302 300 299 299 300 300 301 301 300 300 300 299 301 300 302 302 303 302 301 299 298 298 296 295 293 294 292 291 292 293 291
293 292 293 295 296 296 296 297 297 297 298 299 301 301 301 301 301 301 301 300 300 299 299 299 298 299 302 302 302 299 298 299 297 298 297 296 295 293 291 291 291 290 290 289
292 292 293 295 295 296 297 297 297 297 298 296 300 301 301 301 300 300 300 300 300 299 298 295 297 299 300 299 299 298 297 298 299 297 296 296 294 292 291 291 290 289 289 288
292 291 292 294 295 295 296 296 296 296 297 297 295 300 301 301 301 301 301 300 300 300 299 298 299 301 299 296 298 297 296 297 298 297 296 295 293 291 290 290 289 288 288 286
292 292 291 292 294 294 295 296 296 296 296 296 295 299 301 301 300 299 300 299 299 299 299 299 299 300 300 289 296 296 296 295 295 296 295 293 292 290 289 289 288 287 286 285
292 291 291 291 293 294 296 297 296 296 296 297 293 295 300 300 299 299 299 299 300 299 299 300 299 299 298 295 296 296 296 295 294 294 295 294 292 290 289 288 287 287 285 284
292 291 291 291 292 294 296 297 296 296 297 297 294 294 293 300 299 300 299 299 292 298 296 297 298 293 295 298 296 296 295 295 294 293 292 291 291 289 288 287 287 287 285 284
291 291 292 292 292 294 296 296 296 295 296 297 297 296 299 299 299 297 297 298 293 295 295 299 293 296 297 298 298 297 295 295 294 293 290 290 289 289 288 287 287 286 285 283
291 292 293 293 294 295 296 296 296 296 297 296 296 297 295 299 294 293 297 292 292 296 296 295 292 297 293 296 297 296 295 294 294 293 291 290 290 289 288 286 285 284 283 283
291 294 294 295 296 296 296 295 297 296 296 295 295 297 299 300 300 299 298 294 291 296 294 295 292 289 292 295 296 295 295 294 293 292 291 290 289 288 286 285 284 283 283 282
294 295 296 296 296 295 294 293 297 296 295 296 297 294 300 301 300 296 295 291 290 294 298 291 291 291 291 292 293 293 293 293 293 292 291 289 288 286 285 285 284 283 282 282
293 293 294 294 293 292 292 293 293 297 299 298 300 299 301 300 294 291 290 290 294 295 294 294 288 291 291 292 293 293 291 290 290 289 289 288 287 285 284 283 283 282 282 281
293 293 294 294 294 295 296 297 298 299 299 300 299 297 298 290 293 295 290 294 296 294 292 289 294 293 292 292 291 291 290 289 288 288 287 286 285 284 284 283 282 282 281 280
292 292 292 294 295 296 296 298 298 298 300 299 298 292 290 291 291 296 295 295 292 290 286 296 294 293 292 292 291 290 289 288 287 286 286 285 284 283 283 282 282 281 279 278
292 292 293 294 293 295 297 298 300 299 299 289 294 291 293 293 293 293 294 289 288 296 294 295 294 295 293 292 290 289 288 287 286 285 284 283 283 283 282 281 280 279 278 278

GFSNW_850_thetae_120.txt.gz
Theta_e
300 298 299 299 295 296 298 301 300 301 302 301 297 299 301 303 303 303 303 302 302 299 299 300 299 303 306 305 306 307 309 312 311 310 310 310 313 310 310 308 309 313 307 305
299 299 299 295 296 298 302 300 301 300 302 302 298 300 302 303 302 302 302 302 301 299 296 296 294 300 303 304 305 308 309 312 313 309 311 312 313 313 313 311 311 313 310 305
297 294 295 296 298 301 302 299 297 301 303 299 300 301 301 302 301 301 302 301 299 297 292 294 294 301 303 304 304 306 310 310 307 307 308 310 310 313 313 312 308 307 305 301
295 295 295 296 298 302 302 301 298 301 299 299 299 300 301 300 300 300 301 300 300 297 294 295 298 299 302 303 305 305 308 310 309 307 305 306 306 309 311 309 308 306 302 299
296 295 296 297 301 302 299 301 299 299 299 299 299 300 300 299 299 299 299 300 301 300 300 298 298 300 302 303 304 304 307 310 310 308 310 304 303 303 306 306 304 302 300 298
296 295 296 297 301 300 300 300 299 301 298 297 299 299 300 299 299 301 301 301 300 300 299 300 301 301 301 302 303 304 306 308 309 308 308 306 303 303 302 302 301 303 301 298
296 295 296 298 299 301 300 300 300 300 298 297 298 300 299 299 300 300 300 300 300 301 301 302 303 300 300 301 302 303 306 309 308 310 309 306 303 302 302 300 300 299 297 295
293 294 295 296 299 301 300 300 301 300 298 299 299 300 299 299 299 299 301 300 299 301 301 303 304 303 305 306 306 304 305 307 311 308 306 305 303 300 301 302 300 298 299 296
292 294 296 297 300 300 300 300 301 300 299 298 300 298 299 298 298 297 299 299 300 300 298 299 305 306 307 307 305 304 304 304 310 307 308 306 300 298 298 300 301 296 295 293
291 293 296 298 300 300 300 300 301 300 300 300 299 298 298 299 297 297 296 299 300 299 294 300 303 305 305 305 305 305 304 304 305 306 305 302 297 298 300 304 299 296 293 291
293 292 295 297 299 299 299 299 300 301 300 300 300 300 299 299 298 294 297 295 297 295 297 299 300 302 303 304 304 304 301 303 303 304 303 303 296 299 301 298 296 295 293 292
294 292 295 296 298 298 298 298 298 299 299 299 299 298 298 299 299 299 299 299 299 298 294 295 298 300 299 302 300 301 302 299 300 299 298 295 294 295 295 295 294 294 293 290
293 292 295 296 297 297 297 297 297 297 298 299 301 300 299 298 298 299 300 300 300 299 300 299 295 300 299 302 301 303 301 299 299 298 296 295 293 294 292 293 294 294 293 291
291 294 295 296 297 297 297 297 296 297 300 300 301 301 301 300 301 300 300 300 300 298 299 298 297 299 300 300 300 298 298 298 296 297 297 295 292 292 291 291 291 291 290 289
292 293 295 296 296 296 296 297 297 297 299 297 300 301 301 300 300 300 300 300 299 299 298 294 297 298 299 298 296 298 297 298 298 292 296 294 293 291 291 291 290 289 289 287
292 293 295 295 296 297 297 297 296 297 300 300 295 300 300 300 300 300 300 299 299 299 299 297 298 299 298 293 294 297 297 297 298 297 296 295 293 291 290 290 288 288 287 286
292 293 295 295 295 296 296 296 296 297 298 298 296 300 301 301 299 299 299 299 299 299 298 298 298 299 299 288 295 297 296 296 297 296 294 291 291 290 289 289 288 287 286 285
291 292 294 294 294 295 296 296 296 296 297 297 293 297 300 300 299 299 299 298 299 298 298 299 298 298 297 294 296 296 295 295 294 294 295 294 293 290 289 288 288 287 285 285
291 291 291 294 294 296 296 296 296 296 297 296 292 297 297 299 298 299 299 298 291 297 293 296 297 293 295 296 296 296 295 295 294 294 294 293 292 290 289 288 287 287 285 284
291 291 292 292 294 296 296 296 296 296 296 296 294 295 293 299 297 296 295 296 292 294 294 297 292 293 297 298 297 296 295 295 294 293 290 291 290 289 289 288 287 286 285 284
292 292 293 293 296 296 295 295 295 295 295 295 296 296 294 298 294 292 295 292 291 295 295 296 291 297 294 297 297 297 295 295 295 294 293 292 292 290 288 287 286 285 284 283
292 293 295 295 295 296 294 295 297 296 296 295 295 296 298 299 299 297 296 293 290 295 293 296 295 290 294 296 297 296 295 295 294 293 292 291 290 289 288 287 285 284 283 283
294 294 295 295 294 292 291 295 296 297 294 295 295 293 300 300 299 295 294 289 290 293 296 291 291 292 293 295 296 296 295 294 293 292 291 290 290 288 286 285 284 283 282 282
294 294 291 288 292 291 292 294 292 295 296 296 298 297 299 299 293 289 290 288 291 286 289 292 288 294 294 294 294 295 295 294 293 292 291 290 289 287 285 283 283 282 282 281
293 293 294 293 293 294 296 296 296 297 297 298 298 296 297 288 290 289 289 290 291 291 290 288 296 295 293 293 293 293 293 292 291 290 290 289 288 286 284 283 282 282 281 280
292 292 291 293 294 296 296 297 297 297 298 299 297 291 289 290 290 292 290 293 290 289 286 296 297 294 293 293 293 292 291 290 289 288 288 287 286 284 283 283 282 281 280 279
291 292 292 292 293 294 296 298 299 298 298 293 293 290 292 292 290 291 290 288 286 294 296 297 296 295 294 293 292 291 290 289 288 287 286 285 284 283 283 282 281 280 279 279

GFSNW_850_thetae_123.txt.gz
Theta_e
300 300 299 299 299 299 298 299 301 300 300 301 298 300 302 303 303 303 303 303 303 302 302 303 303 304 306 305 305 307 308 310 311 311 310 310 312 312 312 313 312 313 311 305
298 297 297 298 299 297 300 300 300 300 302 302 301 300 303 303 303 302 302 303 302 299 299 300 298 302 303 303 304 307 308 310 309 307 309 308 312 313 314 312 312 311 313 305
298 299 300 299 297 300 300 299 300 300 302 300 301 303 302 302 302 302 301 301 300 299 297 297 298 302 303 303 303 306 309 308 306 307 307 306 308 310 312 313 312 307 304 300
297 297 297 297 300 301 300 299 299 302 302 300 301 302 301 301 301 300 301 301 301 300 297 298 299 300 302 303 305 305 309 312 310 307 305 304 303 306 307 306 307 307 301 298
297 296 297 297 299 301 299 300 299 299 299 300 302 302 300 300 299 300 300 301 301 300 301 299 300 300 302 304 305 305 308 310 310 308 308 305 303 303 304 304 302 301 299 297
297 297 298 299 300 300 300 299 300 301 298 299 302 301 300 299 301 300 300 301 301 301 300 300 300 300 301 302 302 304 306 309 310 310 308 307 304 302 302 301 300 303 301 297
296 296 296 298 301 300 300 300 300 300 299 299 300 300 299 300 300 301 300 300 300 300 300 301 301 299 299 300 302 301 306 307 309 310 310 308 303 302 301 300 300 298 297 296
295 296 297 300 300 300 300 300 300 300 299 299 300 300 299 299 300 300 300 299 299 300 300 304 305 305 305 305 304 304 304 306 310 310 307 305 304 300 301 302 299 297 298 295
294 295 296 298 300 301 300 300 300 300 300 299 299 299 298 299 299 298 299 299 299 300 300 303 307 306 307 307 305 304 304 304 310 308 308 308 301 298 298 300 301 295 294 295
294 295 297 299 300 300 300 300 300 300 299 299 299 298 299 298 297 298 297 298 299 299 300 304 305 306 305 305 304 304 303 304 305 307 306 302 297 297 299 304 301 294 292 291
293 295 297 299 300 300 300 300 300 300 300 300 299 299 299 298 297 297 296 297 299 298 301 302 302 305 304 305 303 303 302 304 303 305 305 305 295 299 302 298 296 294 292 290
291 295 296 299 299 299 299 300 300 300 300 299 298 298 299 297 298 299 299 298 299 298 299 299 301 304 302 304 303 301 302 300 302 300 300 295 294 294 295 295 295 293 291 289
292 294 296 298 299 299 298 299 299 299 299 300 300 299 298 298 299 300 299 299 299 299 299 299 300 303 301 304 302 302 301 299 299 298 296 294 293 292 293 294 293 292 290 289
292 293 296 297 298 297 297 297 298 299 300 300 300 300 300 300 300 299 299 299 299 298 299 299 300 303 300 303 301 301 299 299 298 298 296 293 292 291 291 291 292 290 288 287
293 295 296 296 297 297 297 296 297 299 299 299 300 300 300 300 300 299 299 299 298 298 298 299 300 299 300 300 298 299 298 298 298 298 296 295 293 291 291 291 290 289 289 287
294 295 296 296 296 296 296 297 297 300 300 300 300 299 300 300 300 300 299 299 299 299 298 297 297 299 299 300 301 297 297 297 298 297 295 295 293 291 291 290 289 288 288 287
294 295 296 296 297 297 296 296 296 299 299 300 299 300 300 300 299 299 299 299 298 298 298 298 298 298 298 297 301 297 296 296 297 296 295 291 291 290 289 289 288 288 287 286
294 295 295 296 296 296 296 296 296 298 298 299 298 299 300 299 298 298 298 298 298 297 297 298 299 298 297 301 296 296 295 295 295 294 295 294 292 290 289 289 288 287 286 285
294 295 295 295 295 295 296 296 296 297 297 296 295 299 300 299 298 298 298 298 297 296 297 298 298 298 301 299 296 296 295 295 294 294 294 293 292 290 289 288 287 287 286 285
292 294 293 294 296 295 295 296 296 296 296 296 295 295 300 298 297 295 296 295 297 299 297 296 298 300 296 298 297 297 295 295 295 294 291 291 289 289 289 289 288 287 286 284
291 292 292 296 296 296 295 295 295 294 295 295 295 296 297 297 298 297 295 296 295 298 298 299 298 299 296 297 297 296 295 295 295 295 294 293 293 291 290 288 287 287 285 284
293 293 296 296 295 295 295 296 296 296 296 295 295 296 298 298 298 297 295 297 295 298 294 299 298 296 295 297 297 296 296 295 294 294 293 292 291 291 289 288 287 286 284 283
295 295 295 295 294 295 293 296 296 296 294 294 295 296 299 299 298 294 296 296 296 292 299 297 296 293 295 296 296 296 295 295 294 293 292 291 290 289 288 287 285 284 284 283
294 294 294 291 292 293 292 295 295 294 295 295 297 295 298 297 294 290 296 292 293 294 295 296 295 295 295 296 296 295 295 295 294 293 292 291 290 289 287 285 284 284 283 281
293 293 291 293 292 293 295 295 295 294 295 297 297 296 296 291 292 291 292 294 295 295 296 295 295 296 294 295 296 295 295 295 294 293 292 290 289 288 286 284 283 283 281 280
292 292 292 293 294 295 296 296 296 295 297 297 297 293 293 294 293 294 294 295 294 295 292 295 296 296 294 295 295 294 294 293 292 291 290 289 289 287 285 284 283 282 281 280
291 291 292 292 294 294 296 298 297 297 297 294 293 292 293 293 294 294 293 293 293 294 296 296 296 295 294 293 293 293 292 291 290 289 288 288 287 285 284 283 282 281 280 279

GFSNW_850_thetae_126.txt.gz
Theta_e
311 309 307 309 305 305 302 300 300 299 300 304 304 305 303 304 304 304 305 305 306 307 306 308 308 309 309 308 307 310 309 312 313 312 311 312 312 313 312 314 315 314 317 310
301 304 307 303 299 303 302 298 298 299 301 305 305 303 305 305 304 305 305 305 305 305 308 310 309 306 306 305 307 309 311 312 313 311 312 309 309 312 314 315 315 317 317 309
299 299 298 298 299 300 303 299 301 298 300 302 303 304 305 304 303 304 304 305 304 304 303 302 304 305 305 305 306 306 309 310 310 311 308 306 307 308 311 313 319 314 307 303
299 299 299 299 299 298 300 299 301 300 303 303 304 305 304 304 303 303 303 304 304 304 303 304 304 304 305 305 306 308 310 311 308 308 308 306 306 306 308 309 309 311 304 301
298 298 298 298 299 299 299 299 301 302 303 302 305 304 305 304 302 303 303 304 304 304 302 303 303 304 307 310 309 310 309 311 312 312 309 307 305 305 307 305 303 302 301 299
296 297 298 299 300 299 299 299 301 302 303 304 305 305 304 303 302 302 303 304 304 303 303 302 302 302 303 306 307 309 310 309 312 315 309 309 308 304 305 303 303 304 305 299
297 297 299 300 300 300 299 300 301 303 304 304 304 303 302 303 303 303 302 302 302 302 300 302 303 303 304 305 306 306 308 308 309 313 312 313 305 303 302 302 301 300 299 297
297 297 298 300 300 300 300 300 301 302 306 304 303 303 303 303 302 303 302 300 300 299 302 308 308 309 309 308 308 308 307 308 312 313 312 307 305 303 304 305 301 299 300 297
297 298 299 299 300 299 300 300 300 302 304 304 302 303 302 303 303 303 301 300 299 301 302 307 307 308 308 309 308 307 306 307 310 310 312 311 305 301 300 302 305 297 298 298
296 296 298 299 300 300 300 300 300 302 302 300 301 302 301 301 301 302 301 301 302 300 304 308 308 308 308 309 307 307 307 307 310 310 310 305 300 299 300 307 304 296 295 297
295 296 298 300 300 300 300 300 300 301 301 300 300 299 300 300 300 301 300 301 302 303 305 306 307 308 308 308 305 306 306 308 309 308 309 309 298 300 304 300 297 296 295 294
294 296 299 300 300 300 300 300 300 300 301 299 298 298 298 298 298 300 299 302 302 302 304 305 306 307 307 307 308 304 306 305 306 304 304 298 297 298 299 298 297 295 294 292
294 296 299 299 299 299 300 300 299 299 300 300 300 299 298 299 299 300 301 301 301 301 301 305 306 307 306 308 307 305 302 301 303 301 297 297 296 295 296 296 295 293 292 291
292 296 298 299 299 298 299 299 299 300 301 302 301 299 298 299 299 299 300 300 299 300 301 303 305 306 305 306 306 305 304 302 301 299 297 296 295 295 294 293 292 291 290 289
292 295 297 298 298 297 298 298 299 298 301 302 301 300 300 300 299 298 298 298 300 301 302 304 305 304 305 304 304 305 302 303 304 305 298 299 296 294 292 291 290 289 288 287
293 296 296 297 297 296 296 298 299 300 301 301 302 300 300 300 299 299 299 299 299 300 301 302 302 302 303 305 305 301 300 300 300 300 297 296 294 292 292 290 289 288 287 286
295 296 296 296 296 296 296 298 299 300 299 301 301 301 300 300 299 299 299 299 299 300 300 301 301 303 303 305 305 300 299 299 298 297 294 293 292 291 290 289 288 286 286 285
295 296 296 296 296 295 296 298 298 299 300 300 302 302 301 299 299 300 298 300 300 299 300 301 301 301 302 303 302 300 298 297 297 296 296 295 292 290 289 288 287 286 285 284
295 296 296 296 295 295 296 297 297 298 298 300 301 302 302 299 299 299 300 299 302 299 302 302 301 302 303 302 301 299 298 297 297 295 294 292 291 290 288 288 287 286 285 284
295 295 294 295 295 296 296 297 297 297 297 298 300 299 301 300 300 299 300 299 301 302 302 300 302 303 301 300 300 299 298 297 295 295 293 293 291 290 289 288 287 287 285 285
294 292 294 295 296 296 296 297 299 297 299 298 298 300 300 298 302 301 299 301 301 302 303 302 303 303 301 299 299 298 297 296 295 296 294 293 292 290 289 288 287 287 286 285
292 296 295 296 296 296 298 298 298 298 299 297 300 300 300 298 299 300 299 301 301 301 300 301 302 302 298 299 298 297 297 296 295 294 293 292 291 290 289 288 288 287 286 284
295 295 295 296 295 297 298 298 298 299 297 296 298 300 300 299 300 300 301 301 301 299 301 301 302 298 296 298 298 297 296 294 293 293 292 292 291 289 289 289 288 287 285 284
295 295 296 297 296 297 297 298 299 296 297 297 300 298 302 299 299 299 301 298 299 300 300 301 302 297 295 296 297 296 295 295 294 294 292 292 291 290 289 288 287 286 284 283
294 295 296 296 294 295 295 295 296 294 297 298 298 299 300 299 298 298 298 299 300 300 301 302 299 297 294 295 296 296 295 295 295 294 292 292 291 290 289 287 285 284 283 283
293 293 295 295 297 297 296 296 296 295 298 297 299 299 300 299 299 299 300 300 300 301 301 298 296 296 294 295 296 295 295 294 294 294 292 291 290 290 288 286 284 284 282 282
293 294 292 294 296 297 296 297 295 296 297 302 299 299 299 298 299 299 298 300 301 299 298 295 296 296 294 294 295 294 294 294 293 292 291 290 289 288 286 285 284 283 282 281

GFSNW_850_thetae_129.txt.gz
Theta_e
308 312 313 314 309 305 304 303 300 300 301 302 302 308 311 306 306 306 307 308 308 310 309 310 312 312 312 310 311 311 311 314 315 315 313 313 313 314 315 316 315 317 319 314
310 310 310 310 306 304 304 299 299 299 300 306 306 308 308 306 306 307 307 307 307 309 312 313 312 311 310 309 310 312 312 314 317 315 315 312 311 311 312 313 318 319 320 312
302 301 301 302 303 305 306 299 300 298 299 301 306 308 307 306 305 306 306 307 306 307 307 306 309 310 308 307 309 307 310 312 314 316 313 309 309 308 309 312 316 319 312 305
300 300 300 301 302 302 303 300 303 302 304 305 306 305 306 306 306 305 306 306 307 307 307 307 307 308 308 307 307 309 312 313 312 310 309 308 307 307 308 312 312 314 306 303
299 299 299 299 300 300 300 300 303 301 304 304 305 305 306 305 305 305 306 306 307 306 305 307 306 308 310 311 311 311 311 313 311 312 310 308 306 307 308 307 306 305 303 301
299 300 300 300 300 300 300 301 302 303 304 305 305 306 305 304 304 304 304 306 306 305 304 305 306 307 309 310 311 311 311 313 312 316 311 311 311 305 306 305 306 306 308 302
298 298 299 299 299 300 302 302 303 304 305 304 305 304 305 305 304 305 305 305 306 305 303 304 305 305 306 308 309 309 311 311 311 315 312 314 306 304 304 304 303 303 300 299
297 298 299 299 299 300 301 302 303 304 306 304 304 304 305 304 304 305 305 304 304 303 304 310 310 310 310 310 310 309 310 310 312 314 314 308 306 305 305 306 303 302 302 299
297 298 300 300 299 300 301 300 303 304 306 305 304 305 304 305 305 305 303 303 303 303 305 309 307 308 308 310 309 309 309 309 312 313 313 314 310 306 304 304 307 301 301 300
298 298 299 299 300 300 302 301 304 305 306 304 304 305 305 304 304 304 304 303 303 303 305 308 307 308 308 310 309 310 310 310 311 312 312 309 305 304 303 308 307 300 301 300
297 297 298 299 300 300 303 302 305 305 304 304 303 303 303 303 303 305 303 303 303 303 306 306 307 309 309 309 308 308 309 310 310 310 311 312 302 303 306 303 300 299 298 298
296 297 298 299 300 300 301 301 303 304 303 303 302 301 301 302 302 303 302 304 302 303 305 307 308 309 309 309 310 306 309 308 310 307 306 299 301 303 301 301 299 298 297 295
296 298 299 299 299 300 301 302 303 301 302 301 301 301 301 298 300 302 303 304 304 304 306 307 308 308 308 309 309 309 306 304 306 304 300 299 299 299 300 299 298 297 295 294
295 298 299 298 299 300 301 303 303 303 302 303 301 301 301 301 301 302 303 303 303 304 305 306 308 307 307 308 309 308 307 305 303 301 299 298 298 298 298 297 295 294 293 293
295 298 299 299 298 299 300 300 302 303 303 303 302 301 301 301 301 301 302 302 303 304 304 307 307 306 306 307 307 308 305 306 305 308 300 302 299 297 296 295 293 293 292 291
295 297 298 297 297 298 301 300 300 302 301 302 303 301 301 301 301 301 301 301 302 302 304 304 305 305 307 307 307 306 304 304 304 302 300 301 298 296 295 294 292 291 290 290
295 297 297 296 296 298 301 302 301 302 302 302 302 302 301 301 301 301 301 301 301 302 302 303 304 304 304 306 306 304 303 302 301 300 299 298 297 296 294 293 291 290 289 288
296 296 297 297 296 297 299 300 300 300 302 302 303 303 302 301 302 302 301 302 301 302 302 302 303 303 303 304 305 303 302 301 300 298 299 297 296 295 293 291 290 289 288 287
296 296 296 296 298 300 298 298 298 298 303 303 304 303 304 301 302 301 301 302 304 301 304 304 303 305 304 303 303 302 301 301 299 299 298 297 295 293 292 291 290 289 288 286
296 296 296 296 297 297 298 300 302 302 301 302 304 303 303 301 302 302 302 302 303 304 304 302 304 304 304 302 302 302 301 300 299 298 297 295 294 293 291 291 290 289 287 286
296 294 296 296 296 299 299 298 302 301 302 302 302 302 302 301 303 303 302 303 303 304 304 304 305 305 304 302 302 301 300 300 299 298 297 296 295 293 292 291 290 289 287 286
295 296 296 297 299 299 302 301 300 301 302 301 302 301 301 301 302 302 302 303 303 303 303 303 304 305 301 302 301 301 300 299 298 298 296 296 294 293 292 291 289 288 286 285
295 296 296 299 297 300 301 300 301 302 300 300 301 303 301 301 302 302 302 303 304 302 302 304 304 301 300 301 301 300 299 298 297 296 295 294 293 292 291 290 288 287 287 285
296 298 298 300 299 300 301 301 302 299 300 301 302 302 303 302 302 302 303 301 302 303 303 302 305 301 299 300 301 300 298 297 296 295 293 293 292 291 290 289 289 288 287 285
296 298 298 298 297 297 297 297 298 298 301 301 302 302 302 302 301 302 301 301 302 302 303 306 303 297 297 298 299 298 296 295 294 294 293 292 291 291 290 289 288 287 285 284
295 295 297 296 298 297 297 297 297 298 301 301 301 302 303 302 302 302 302 301 301 304 305 302 300 297 296 295 296 296 296 295 294 294 293 292 291 290 290 288 287 285 284 283
295 295 294 296 299 298 297 297 297 299 300 302 301 302 302 301 302 302 301 303 304 303 302 300 297 296 295 294 295 295 295 295 294 294 293 292 290 290 289 288 286 284 283 282

GFSNW_850_thetae_135.txt.gz
Theta_e
298 301 302 300 300 303 306 305 306 306 306 303 303 306 305 305 308 306 309 314 313 310 309 309 308 310 310 312 312 312 312 312 313 314 314 313 313 315 314 312 315 315 311 307
300 301 302 303 302 306 307 307 303 305 306 306 304 305 306 307 308 308 310 311 310 310 307 305 307 311 310 311 311 312 312 312 313 313 313 315 314 314 312 315 313 312 311 304
301 301 303 305 311 310 308 304 301 302 305 307 305 305 308 308 307 309 310 309 309 308 306 306 305 311 312 311 311 311 312 313 313 315 313 312 311 309 308 309 305 305 306 303
301 301 303 305 302 303 303 301 301 302 303 304 304 306 307 308 309 309 309 308 308 307 308 307 308 311 311 310 309 310 311 313 310 313 311 309 307 308 307 308 309 311 301 301
300 301 301 301 300 301 301 300 301 302 302 302 304 306 308 307 307 310 307 308 308 307 307 308 308 309 310 309 308 309 310 311 305 304 309 309 302 301 302 306 308 307 303 301
298 299 299 300 301 301 300 302 301 303 302 303 305 306 306 308 308 308 307 308 308 308 307 307 307 309 309 308 309 309 311 311 309 310 308 310 311 301 304 307 306 307 304 300
299 299 299 300 300 301 302 303 303 305 303 303 306 307 307 309 308 306 307 306 308 308 307 307 307 307 309 310 310 310 312 311 311 310 310 312 304 305 305 306 304 301 299 297
298 300 299 299 299 301 301 303 304 305 301 303 307 308 308 308 306 305 306 305 306 306 307 307 308 309 309 309 311 312 311 312 310 310 312 307 306 306 306 304 304 300 299 298
297 299 299 298 299 301 302 302 304 304 305 306 307 307 306 305 304 304 305 305 305 306 307 308 309 310 310 309 309 311 311 310 311 309 313 312 307 305 305 305 305 301 300 297
297 297 298 299 300 300 302 303 303 304 304 305 306 305 304 304 305 305 304 304 304 305 304 308 307 308 309 310 310 310 309 309 308 307 309 309 306 305 306 306 302 301 299 297
297 298 299 299 299 300 301 303 303 304 305 305 305 305 305 304 305 304 304 304 303 302 304 307 305 306 309 310 310 310 309 307 307 307 309 310 304 304 305 302 303 303 300 299
297 298 299 299 300 298 300 303 305 305 304 304 305 305 304 305 305 305 304 304 303 303 304 304 304 308 308 308 307 308 310 308 307 305 304 302 303 304 303 302 301 300 301 300
297 298 299 299 298 299 300 304 303 303 303 302 303 303 304 304 305 304 303 305 303 305 307 307 307 307 306 306 306 307 307 306 301 301 300 301 302 302 302 300 299 298 298 297
296 299 299 298 300 302 303 303 303 304 303 302 302 302 302 303 304 304 303 305 305 306 308 307 306 306 308 307 308 306 306 304 301 300 300 300 300 301 300 298 297 296 295 294
297 299 298 300 303 304 304 304 304 303 302 302 302 302 302 300 301 303 304 304 303 306 305 305 305 306 306 305 305 306 306 303 300 297 299 299 299 300 298 297 296 295 294 293
298 298 297 301 301 303 303 303 303 302 301 302 300 302 302 303 303 301 299 303 304 304 305 305 307 307 307 302 302 305 305 305 306 305 302 301 300 299 297 296 295 294 293 293
297 298 299 301 302 301 301 303 303 302 301 301 300 301 302 301 302 302 302 303 303 304 303 304 305 304 305 299 302 305 304 303 303 302 301 299 299 298 297 296 294 294 293 292
297 297 297 299 299 301 303 303 303 303 304 302 299 299 301 302 302 302 302 302 303 303 302 303 304 303 303 301 304 304 303 302 301 301 301 300 298 297 296 294 293 292 291 290
297 298 299 299 299 301 301 301 302 304 304 303 300 299 297 303 302 302 302 304 299 303 301 302 302 301 300 302 304 303 302 302 301 301 299 298 298 296 295 293 292 291 290 289
298 297 296 297 298 300 299 300 299 300 303 304 300 302 298 303 303 302 302 303 300 301 301 302 299 301 303 302 303 303 303 302 300 300 299 298 297 296 294 293 291 290 289 288
297 295 298 299 300 299 299 299 300 303 300 303 303 302 300 303 300 299 303 299 299 301 301 300 300 302 302 302 303 302 302 302 301 300 299 298 297 295 294 292 291 290 289 288
296 298 299 299 300 300 298 298 299 301 301 302 301 303 303 303 303 301 302 300 299 305 302 298 299 299 302 302 302 302 301 301 300 300 299 298 297 295 294 293 291 290 290 288
296 296 297 300 298 295 295 296 299 299 302 303 302 300 301 303 302 302 299 298 299 302 296 298 299 302 302 302 302 301 301 300 300 299 298 297 296 295 294 293 292 291 290 289
296 295 293 296 294 297 300 300 300 301 302 302 302 303 302 302 298 298 297 298 298 297 297 301 296 301 302 302 301 301 300 299 299 298 297 297 296 295 294 293 292 291 290 289
297 298 295 295 298 298 298 299 300 301 303 302 302 301 302 296 298 297 297 298 299 299 299 300 300 299 301 301 301 301 300 299 298 297 296 296 295 294 293 293 292 291 290 289
295 296 295 297 297 296 297 298 300 302 302 302 302 299 298 299 297 300 299 301 299 299 297 300 298 298 300 300 300 299 299 298 297 296 295 295 294 293 293 292 291 290 290 288
297 296 297 298 297 296 296 297 299 302 302 298 300 298 301 299 299 301 299 301 299 301 299 299 297 296 297 297 296 298 297 297 296 295 294 294 293 292 292 291 291 290 289 287